Wetterdaten: Donnerstag, 24.09.2020
Datum Zeit Temp. Aussen Temp. o. S. Temp +5cm Feuchte Auss Luftdruck Regen Sonnenschein Regendauer Solar Windben Empfang
24.09.2020 00:00 18,4 C 17,2 C 17,2 C 77 % 1000,3 hPa 0,0 l/m 0 min 0 min 0 W/m 12,9 km/h (3 Bft) 97,87 %
24.09.2020 00:02 18,4 C 17,2 C 17,2 C 78 % 1000,3 hPa 0,0 l/m 0 min 0 min 0 W/m 16,1 km/h (3 Bft) 93,33 %
24.09.2020 00:04 18,4 C 17,8 C 17,2 C 78 % 1000,2 hPa 0,0 l/m 0 min 0 min 0 W/m 19,3 km/h (3 Bft) 97,87 %
24.09.2020 00:08 18,4 C 17,8 C 17,2 C 78 % 1000,1 hPa 0,0 l/m 0 min 0 min 0 W/m 16,1 km/h (3 Bft) 97,87 %
24.09.2020 00:12 18,4 C 17,8 C 17,2 C 78 % 1000,1 hPa 0,0 l/m 0 min 0 min 0 W/m 16,1 km/h (3 Bft) 99,46 %
24.09.2020 00:14 18,4 C 17,8 C 17,2 C 78 % 1000,0 hPa 0,0 l/m 0 min 0 min 0 W/m 16,1 km/h (3 Bft) 100,00 %
24.09.2020 00:16 18,4 C 17,8 C 17,2 C 78 % 1000,1 hPa 0,0 l/m 0 min 0 min 0 W/m 19,3 km/h (3 Bft) 97,87 %
24.09.2020 00:18 18,4 C 17,8 C 17,2 C 78 % 1000,1 hPa 0,0 l/m 0 min 0 min 0 W/m 19,3 km/h (3 Bft) 100,00 %
24.09.2020 00:20 18,5 C 17,8 C 17,2 C 78 % 1000,0 hPa 0,0 l/m 0 min 0 min 0 W/m 19,3 km/h (3 Bft) 100,00 %
24.09.2020 00:22 18,5 C 17,8 C 17,2 C 78 % 1000,0 hPa 0,0 l/m 0 min 0 min 0 W/m 16,1 km/h (3 Bft) 97,83 %
24.09.2020 00:24 18,5 C 17,8 C 17,2 C 78 % 1000,0 hPa 0,0 l/m 0 min 0 min 0 W/m 19,3 km/h (3 Bft) 100,00 %
24.09.2020 00:26 18,5 C 17,8 C 17,2 C 78 % 1000,0 hPa 0,0 l/m 0 min 0 min 0 W/m 16,1 km/h (3 Bft) 100,00 %
24.09.2020 00:28 18,6 C 17,8 C 17,2 C 78 % 1000,0 hPa 0,0 l/m 0 min 0 min 0 W/m 19,3 km/h (3 Bft) 100,00 %
24.09.2020 00:30 18,6 C 17,8 C 17,2 C 78 % 1000,0 hPa 0,0 l/m 0 min 0 min 0 W/m 19,3 km/h (3 Bft) 100,00 %
24.09.2020 00:32 18,6 C 17,8 C 17,2 C 78 % 1000,0 hPa 0,0 l/m 0 min 0 min 0 W/m 19,3 km/h (3 Bft) 100,00 %
24.09.2020 00:34 18,6 C 17,8 C 17,2 C 78 % 1000,0 hPa 0,0 l/m 0 min 0 min 0 W/m 16,1 km/h (3 Bft) 100,00 %
24.09.2020 00:36 18,6 C 17,8 C 17,2 C 78 % 1000,1 hPa 0,0 l/m 0 min 0 min 0 W/m 19,3 km/h (3 Bft) 100,00 %
24.09.2020 00:38 18,7 C 17,2 C 17,2 C 78 % 1000,0 hPa 0,0 l/m 0 min 2 min 0 W/m 16,1 km/h (3 Bft) 100,00 %
24.09.2020 00:40 18,7 C 17,2 C 17,2 C 78 % 1000,0 hPa 0,0 l/m 0 min 2 min 0 W/m 16,1 km/h (3 Bft) 100,00 %
24.09.2020 00:42 18,7 C 16,1 C 17,2 C 79 % 999,9 hPa 0,0 l/m 0 min 0 min 0 W/m 16,1 km/h (3 Bft) 100,00 %
24.09.2020 00:44 18,7 C 16,7 C 17,2 C 79 % 999,8 hPa 0,0 l/m 0 min 2 min 0 W/m 19,3 km/h (3 Bft) 100,00 %
24.09.2020 00:46 18,7 C 16,1 C 16,7 C 79 % 999,8 hPa 0,0 l/m 0 min 2 min 0 W/m 22,5 km/h (4 Bft) 100,00 %
24.09.2020 00:48 18,7 C 16,1 C 16,7 C 79 % 999,7 hPa 0,0 l/m 0 min 0 min 0 W/m 19,3 km/h (3 Bft) 100,00 %
24.09.2020 00:50 18,7 C 16,7 C 16,7 C 79 % 999,6 hPa 0,0 l/m 0 min 0 min 0 W/m 12,9 km/h (3 Bft) 100,00 %
24.09.2020 00:52 18,7 C 16,7 C 16,7 C 79 % 999,6 hPa 0,0 l/m 0 min 2 min 0 W/m 19,3 km/h (3 Bft) 100,00 %
24.09.2020 00:54 18,7 C 17,2 C 16,7 C 79 % 999,5 hPa 0,0 l/m 0 min 0 min 0 W/m 22,5 km/h (4 Bft) 100,00 %
24.09.2020 00:56 18,7 C 17,2 C 16,7 C 79 % 999,5 hPa 0,0 l/m 0 min 0 min 0 W/m 16,1 km/h (3 Bft) 100,00 %
24.09.2020 00:58 18,7 C 17,2 C 16,7 C 80 % 999,5 hPa 0,0 l/m 0 min 0 min 0 W/m 6,4 km/h (2 Bft) 100,00 %
24.09.2020 01:00 18,7 C 17,2 C 16,7 C 80 % 999,5 hPa 0,0 l/m 0 min 0 min 0 W/m 16,1 km/h (3 Bft) 100,00 %
24.09.2020 01:02 18,7 C 17,2 C 16,7 C 80 % 999,6 hPa 0,0 l/m 0 min 0 min 0 W/m 16,1 km/h (3 Bft) 100,00 %
24.09.2020 01:04 18,7 C 17,2 C 16,7 C 80 % 999,9 hPa 0,0 l/m 0 min 0 min 0 W/m 12,9 km/h (3 Bft) 100,00 %
24.09.2020 01:06 18,7 C 17,2 C 16,7 C 80 % 1000,0 hPa 0,0 l/m 0 min 0 min 0 W/m 9,7 km/h (2 Bft) 100,00 %
24.09.2020 01:08 18,7 C 17,8 C 16,7 C 80 % 1000,1 hPa 0,0 l/m 0 min 0 min 0 W/m 3,2 km/h (1 Bft) 100,00 %
24.09.2020 01:10 18,7 C 17,2 C 16,7 C 80 % 1000,2 hPa 0,0 l/m 0 min 2 min 0 W/m 9,7 km/h (2 Bft) 100,00 %
24.09.2020 01:12 18,7 C 15,6 C 16,1 C 81 % 1000,3 hPa 0,2 l/m 0 min 2 min 0 W/m 19,3 km/h (3 Bft) 100,00 %
24.09.2020 01:14 18,6 C 15,0 C 15,6 C 81 % 1000,4 hPa 0,0 l/m 0 min 2 min 0 W/m 25,7 km/h (4 Bft) 100,00 %
24.09.2020 01:16 18,6 C 14,4 C 15,6 C 82 % 1000,6 hPa 0,2 l/m 0 min 2 min 0 W/m 29,0 km/h (5 Bft) 100,00 %
24.09.2020 01:18 18,5 C 14,4 C 15,0 C 82 % 1000,5 hPa 0,2 l/m 0 min 2 min 0 W/m 25,7 km/h (4 Bft) 97,87 %
24.09.2020 01:20 18,4 C 14,4 C 15,0 C 83 % 1000,5 hPa 0,0 l/m 0 min 2 min 0 W/m 12,9 km/h (3 Bft) 100,00 %
24.09.2020 01:22 18,3 C 14,4 C 15,0 C 84 % 1000,6 hPa 0,2 l/m 0 min 2 min 0 W/m 9,7 km/h (2 Bft) 100,00 %
24.09.2020 01:24 18,3 C 14,4 C 14,4 C 84 % 1000,7 hPa 0,0 l/m 0 min 2 min 0 W/m 12,9 km/h (3 Bft) 100,00 %
24.09.2020 01:26 18,2 C 14,4 C 14,4 C 85 % 1000,6 hPa 0,0 l/m 0 min 2 min 0 W/m 9,7 km/h (2 Bft) 97,87 %
24.09.2020 01:28 18,1 C 14,4 C 14,4 C 85 % 1000,6 hPa 0,0 l/m 0 min 2 min 0 W/m 29,0 km/h (5 Bft) 100,00 %
24.09.2020 01:30 17,9 C 14,4 C 14,4 C 86 % 1000,6 hPa 0,0 l/m 0 min 2 min 0 W/m 12,9 km/h (3 Bft) 100,00 %
24.09.2020 01:32 17,9 C 14,4 C 14,4 C 86 % 1000,5 hPa 0,2 l/m 0 min 2 min 0 W/m 3,2 km/h (1 Bft) 100,00 %
24.09.2020 01:34 17,8 C 14,4 C 14,4 C 86 % 1000,5 hPa 0,0 l/m 0 min 2 min 0 W/m 3,2 km/h (1 Bft) 97,87 %
24.09.2020 01:36 17,8 C 14,4 C 14,4 C 86 % 1000,4 hPa 0,0 l/m 0 min 2 min 0 W/m 0,0 km/h (0 Bft) 100,00 %
24.09.2020 01:38 17,7 C 14,4 C 14,4 C 87 % 1000,4 hPa 0,0 l/m 0 min 2 min 0 W/m 6,4 km/h (2 Bft) 97,87 %
24.09.2020 01:40 17,7 C 14,4 C 14,4 C 87 % 1000,3 hPa 0,0 l/m 0 min 2 min 0 W/m 6,4 km/h (2 Bft) 97,87 %
24.09.2020 01:42 17,6 C 14,4 C 14,4 C 87 % 1000,3 hPa 0,0 l/m 0 min 2 min 0 W/m 0,0 km/h (0 Bft) 100,00 %
24.09.2020 01:44 17,6 C 14,4 C 14,4 C 87 % 1000,3 hPa 0,0 l/m 0 min 0 min 0 W/m 0,0 km/h (0 Bft) 100,00 %
24.09.2020 01:46 17,5 C 14,4 C 14,4 C 88 % 1000,3 hPa 0,0 l/m 0 min 2 min 0 W/m 0,0 km/h (0 Bft) 97,87 %
24.09.2020 01:48 17,4 C 14,4 C 14,4 C 88 % 1000,3 hPa 0,2 l/m 0 min 2 min 0 W/m 0,0 km/h (0 Bft) 97,87 %
24.09.2020 01:50 17,3 C 14,4 C 14,4 C 88 % 1000,3 hPa 0,0 l/m 0 min 2 min 0 W/m 0,0 km/h (0 Bft) 97,87 %
24.09.2020 01:52 17,3 C 14,4 C 14,4 C 89 % 1000,3 hPa 0,0 l/m 0 min 2 min 0 W/m 0,0 km/h (0 Bft) 97,87 %
24.09.2020 01:54 17,2 C 14,4 C 14,4 C 89 % 1000,3 hPa 0,0 l/m 0 min 2 min 0 W/m 9,7 km/h (2 Bft) 97,87 %
24.09.2020 01:56 17,2 C 14,4 C 14,4 C 89 % 1000,3 hPa 0,0 l/m 0 min 2 min 0 W/m 6,4 km/h (2 Bft) 97,83 %
24.09.2020 01:58 17,1 C 14,4 C 14,4 C 90 % 1000,4 hPa 0,0 l/m 0 min 2 min 0 W/m 6,4 km/h (2 Bft) 95,74 %
24.09.2020 02:00 17,0 C 14,4 C 14,4 C 90 % 1000,4 hPa 0,0 l/m 0 min 2 min 0 W/m 16,1 km/h (3 Bft) 95,74 %
24.09.2020 02:02 16,9 C 14,4 C 14,4 C 90 % 1000,4 hPa 0,2 l/m 0 min 2 min 0 W/m 12,9 km/h (3 Bft) 93,75 %
24.09.2020 02:04 16,8 C 14,4 C 14,4 C 91 % 1000,3 hPa 0,2 l/m 0 min 2 min 0 W/m 12,9 km/h (3 Bft) 95,74 %
24.09.2020 02:06 16,8 C 14,4 C 14,4 C 91 % 1000,3 hPa 0,2 l/m 0 min 2 min 0 W/m 9,7 km/h (2 Bft) 95,65 %
24.09.2020 02:08 16,7 C 14,4 C 14,4 C 91 % 1000,3 hPa 0,0 l/m 0 min 2 min 0 W/m 12,9 km/h (3 Bft) 93,62 %
24.09.2020 02:10 16,7 C 14,4 C 14,4 C 91 % 1000,3 hPa 0,2 l/m 0 min 2 min 0 W/m 12,9 km/h (3 Bft) 93,62 %
24.09.2020 02:12 16,6 C 14,4 C 14,4 C 92 % 1000,3 hPa 0,0 l/m 0 min 0 min 0 W/m 16,1 km/h (3 Bft) 93,62 %
24.09.2020 02:14 16,6 C 14,4 C 14,4 C 92 % 1000,2 hPa 0,0 l/m 0 min 2 min 0 W/m 12,9 km/h (3 Bft) 93,62 %
24.09.2020 02:16 16,6 C 14,4 C 14,4 C 92 % 1000,2 hPa 0,0 l/m 0 min 0 min 0 W/m 12,9 km/h (3 Bft) 91,49 %
24.09.2020 02:18 16,5 C 14,4 C 14,4 C 92 % 1000,1 hPa 0,0 l/m 0 min 2 min 0 W/m 22,5 km/h (4 Bft) 93,48 %
24.09.2020 02:20 16,4 C 14,4 C 14,4 C 92 % 1000,2 hPa 0,0 l/m 0 min 2 min 0 W/m 19,3 km/h (3 Bft) 89,36 %
24.09.2020 02:22 16,4 C 14,4 C 14,4 C 93 % 1000,1 hPa 0,0 l/m 0 min 0 min 0 W/m 19,3 km/h (3 Bft) 93,62 %
24.09.2020 02:24 16,3 C 14,4 C 13,9 C 93 % 1000,1 hPa 0,0 l/m 0 min 0 min 0 W/m 12,9 km/h (3 Bft) 93,62 %
24.09.2020 02:26 16,3 C 14,4 C 14,4 C 93 % 1000,0 hPa 0,0 l/m 0 min 0 min 0 W/m 6,4 km/h (2 Bft) 93,62 %
24.09.2020 02:28 16,3 C 14,4 C 14,4 C 93 % 1000,0 hPa 0,0 l/m 0 min 0 min 0 W/m 6,4 km/h (2 Bft) 93,62 %
24.09.2020 02:30 16,3 C 14,4 C 14,4 C 93 % 1000,0 hPa 0,0 l/m 0 min 0 min 0 W/m 12,9 km/h (3 Bft) 93,48 %
24.09.2020 02:32 16,3 C 14,4 C 14,4 C 94 % 1000,0 hPa 0,0 l/m 0 min 0 min 0 W/m 16,1 km/h (3 Bft) 91,49 %
24.09.2020 02:34 16,2 C 14,4 C 14,4 C 94 % 1000,1 hPa 0,0 l/m 0 min 0 min 0 W/m 6,4 km/h (2 Bft) 95,74 %
24.09.2020 02:36 16,2 C 14,4 C 14,4 C 94 % 1000,0 hPa 0,0 l/m 0 min 0 min 0 W/m 19,3 km/h (3 Bft) 93,62 %
24.09.2020 02:38 16,2 C 14,4 C 14,4 C 94 % 1000,0 hPa 0,0 l/m 0 min 0 min 0 W/m 12,9 km/h (3 Bft) 91,49 %
24.09.2020 02:40 16,2 C 14,4 C 14,4 C 94 % 1000,0 hPa 0,0 l/m 0 min 0 min 0 W/m 12,9 km/h (3 Bft) 95,74 %
24.09.2020 02:42 16,2 C 14,4 C 14,4 C 94 % 1000,0 hPa 0,0 l/m 0 min 0 min 0 W/m 6,4 km/h (2 Bft) 95,65 %
24.09.2020 02:44 16,2 C 14,4 C 14,4 C 94 % 1000,1 hPa 0,0 l/m 0 min 0 min 0 W/m 19,3 km/h (3 Bft) 95,74 %
24.09.2020 02:46 16,2 C 14,4 C 14,4 C 94 % 1000,1 hPa 0,0 l/m 0 min 0 min 0 W/m 3,2 km/h (1 Bft) 95,74 %
24.09.2020 02:48 16,1 C 14,4 C 14,4 C 94 % 1000,1 hPa 0,0 l/m 0 min 0 min 0 W/m 3,2 km/h (1 Bft) 93,62 %
24.09.2020 02:50 16,1 C 14,4 C 14,4 C 94 % 1000,1 hPa 0,0 l/m 0 min 0 min 0 W/m 12,9 km/h (3 Bft) 93,62 %
24.09.2020 02:52 16,1 C 14,4 C 14,4 C 95 % 1000,1 hPa 0,0 l/m 0 min 0 min 0 W/m 6,4 km/h (2 Bft) 93,62 %
24.09.2020 02:54 16,1 C 14,4 C 14,4 C 95 % 1000,0 hPa 0,0 l/m 0 min 0 min 0 W/m 16,1 km/h (3 Bft) 95,65 %
24.09.2020 02:56 16,1 C 14,4 C 14,4 C 95 % 1000,1 hPa 0,0 l/m 0 min 0 min 0 W/m 16,1 km/h (3 Bft) 93,62 %
24.09.2020 02:58 16,1 C 14,4 C 14,4 C 95 % 1000,1 hPa 0,0 l/m 0 min 0 min 0 W/m 16,1 km/h (3 Bft) 97,87 %
24.09.2020 03:00 16,1 C 14,4 C 14,4 C 95 % 1000,0 hPa 0,0 l/m 0 min 0 min 0 W/m 22,5 km/h (4 Bft) 97,87 %
24.09.2020 03:02 16,1 C 14,4 C 14,4 C 95 % 1000,0 hPa 0,0 l/m 0 min 0 min 0 W/m 12,9 km/h (3 Bft) 97,87 %
24.09.2020 03:04 16,1 C 14,4 C 14,4 C 95 % 1000,1 hPa 0,0 l/m 0 min 0 min 0 W/m 6,4 km/h (2 Bft) 100,00 %
24.09.2020 03:06 16,1 C 14,4 C 14,4 C 95 % 1000,1 hPa 0,0 l/m 0 min 0 min 0 W/m 6,4 km/h (2 Bft) 100,00 %
24.09.2020 03:08 16,1 C 14,4 C 14,4 C 95 % 1000,1 hPa 0,0 l/m 0 min 0 min 0 W/m 16,1 km/h (3 Bft) 97,87 %
24.09.2020 03:10 16,1 C 14,4 C 14,4 C 95 % 1000,2 hPa 0,0 l/m 0 min 0 min 0 W/m 25,7 km/h (4 Bft) 100,00 %
24.09.2020 03:12 16,1 C 14,4 C 14,4 C 95 % 1000,2 hPa 0,0 l/m 0 min 0 min 0 W/m 12,9 km/h (3 Bft) 100,00 %
24.09.2020 03:14 16,1 C 14,4 C 14,4 C 95 % 1000,2 hPa 0,0 l/m 0 min 0 min 0 W/m 19,3 km/h (3 Bft) 100,00 %
24.09.2020 03:16 16,1 C 15,0 C 14,4 C 95 % 1000,2 hPa 0,0 l/m 0 min 0 min 0 W/m 19,3 km/h (3 Bft) 100,00 %
24.09.2020 03:18 16,1 C 14,4 C 14,4 C 95 % 1000,1 hPa 0,0 l/m 0 min 0 min 0 W/m 12,9 km/h (3 Bft) 100,00 %
24.09.2020 03:20 16,1 C 14,4 C 14,4 C 96 % 1000,1 hPa 0,0 l/m 0 min 0 min 0 W/m 9,7 km/h (2 Bft) 97,44 %
24.09.2020 03:22 16,1 C 15,0 C 14,4 C 96 % 1000,1 hPa 0,0 l/m 0 min 0 min 0 W/m 16,1 km/h (3 Bft) 100,00 %
24.09.2020 03:24 16,1 C 15,0 C 14,4 C 96 % 1000,1 hPa 0,0 l/m 0 min 0 min 0 W/m 29,0 km/h (5 Bft) 100,00 %
24.09.2020 03:26 16,1 C 14,4 C 14,4 C 96 % 1000,1 hPa 0,0 l/m 0 min 0 min 0 W/m 6,4 km/h (2 Bft) 100,00 %
24.09.2020 03:28 16,1 C 14,4 C 14,4 C 96 % 1000,1 hPa 0,0 l/m 0 min 0 min 0 W/m 12,9 km/h (3 Bft) 97,87 %
24.09.2020 03:30 16,1 C 15,0 C 14,4 C 96 % 1000,2 hPa 0,0 l/m 0 min 0 min 0 W/m 16,1 km/h (3 Bft) 100,00 %
24.09.2020 03:32 16,1 C 15,0 C 14,4 C 96 % 1000,3 hPa 0,0 l/m 0 min 0 min 0 W/m 25,7 km/h (4 Bft) 97,87 %
24.09.2020 03:34 16,1 C 15,0 C 14,4 C 96 % 1000,3 hPa 0,0 l/m 0 min 0 min 0 W/m 29,0 km/h (5 Bft) 97,83 %
24.09.2020 03:36 16,1 C 14,4 C 14,4 C 96 % 1000,4 hPa 0,0 l/m 0 min 2 min 0 W/m 19,3 km/h (3 Bft) 97,87 %
24.09.2020 03:38 16,1 C 14,4 C 14,4 C 96 % 1000,8 hPa 0,4 l/m 0 min 2 min 0 W/m 35,4 km/h (5 Bft) 100,00 %
24.09.2020 03:40 16,1 C 14,4 C 14,4 C 96 % 1000,8 hPa 0,4 l/m 0 min 2 min 0 W/m 25,7 km/h (4 Bft) 100,00 %
24.09.2020 03:42 16,1 C 14,4 C 14,4 C 96 % 1000,8 hPa 0,2 l/m 0 min 2 min 0 W/m 22,5 km/h (4 Bft) 100,00 %
24.09.2020 03:44 16,1 C 13,9 C 13,9 C 96 % 1000,9 hPa 0,0 l/m 0 min 2 min 0 W/m 19,3 km/h (3 Bft) 100,00 %
24.09.2020 03:46 16,0 C 13,9 C 13,9 C 96 % 1000,8 hPa 0,0 l/m 0 min 0 min 0 W/m 19,3 km/h (3 Bft) 100,00 %
24.09.2020 03:48 15,9 C 13,9 C 13,9 C 96 % 1000,9 hPa 0,0 l/m 0 min 0 min 0 W/m 19,3 km/h (3 Bft) 100,00 %
24.09.2020 03:50 15,8 C 13,9 C 13,9 C 95 % 1001,1 hPa 0,0 l/m 0 min 0 min 0 W/m 16,1 km/h (3 Bft) 100,00 %
24.09.2020 03:52 15,7 C 13,9 C 13,3 C 95 % 1001,1 hPa 0,0 l/m 0 min 2 min 0 W/m 19,3 km/h (3 Bft) 100,00 %
24.09.2020 03:54 15,6 C 13,3 C 13,3 C 95 % 1001,2 hPa 0,0 l/m 0 min 2 min 0 W/m 19,3 km/h (3 Bft) 100,00 %
24.09.2020 03:56 15,4 C 12,8 C 12,8 C 95 % 1001,3 hPa 0,0 l/m 0 min 0 min 0 W/m 12,9 km/h (3 Bft) 97,83 %
24.09.2020 03:58 15,1 C 12,2 C 12,8 C 94 % 1001,2 hPa 0,0 l/m 0 min 0 min 0 W/m 19,3 km/h (3 Bft) 100,00 %
24.09.2020 04:00 14,9 C 12,2 C 12,8 C 94 % 1001,2 hPa 0,0 l/m 0 min 2 min 0 W/m 12,9 km/h (3 Bft) 100,00 %
24.09.2020 04:02 14,8 C 12,2 C 12,2 C 94 % 1001,3 hPa 0,0 l/m 0 min 2 min 0 W/m 12,9 km/h (3 Bft) 100,00 %
24.09.2020 04:04 14,7 C 12,2 C 12,2 C 94 % 1001,3 hPa 0,0 l/m 0 min 0 min 0 W/m 29,0 km/h (5 Bft) 100,00 %
24.09.2020 04:06 14,6 C 12,2 C 12,2 C 93 % 1001,4 hPa 0,0 l/m 0 min 0 min 0 W/m 9,7 km/h (2 Bft) 100,00 %
24.09.2020 04:08 14,5 C 12,2 C 12,2 C 93 % 1001,5 hPa 0,0 l/m 0 min 0 min 0 W/m 6,4 km/h (2 Bft) 100,00 %
24.09.2020 04:10 14,4 C 12,8 C 12,8 C 93 % 1001,4 hPa 0,0 l/m 0 min 0 min 0 W/m 16,1 km/h (3 Bft) 100,00 %
24.09.2020 04:12 14,4 C 12,8 C 12,8 C 94 % 1001,6 hPa 0,0 l/m 0 min 0 min 0 W/m 6,4 km/h (2 Bft) 100,00 %
24.09.2020 04:14 14,3 C 12,8 C 12,8 C 94 % 1001,6 hPa 0,0 l/m 0 min 0 min 0 W/m 0,0 km/h (0 Bft) 100,00 %
24.09.2020 04:16 14,3 C 12,8 C 12,8 C 94 % 1001,8 hPa 0,0 l/m 0 min 0 min 0 W/m 12,9 km/h (3 Bft) 100,00 %
24.09.2020 04:18 14,3 C 12,2 C 12,8 C 94 % 1001,9 hPa 0,0 l/m 0 min 2 min 0 W/m 16,1 km/h (3 Bft) 100,00 %
24.09.2020 04:20 14,3 C 12,2 C 12,2 C 94 % 1001,9 hPa 0,0 l/m 0 min 0 min 0 W/m 9,7 km/h (2 Bft) 97,83 %
24.09.2020 04:22 14,3 C 12,2 C 12,2 C 93 % 1001,9 hPa 0,0 l/m 0 min 0 min 0 W/m 12,9 km/h (3 Bft) 100,00 %
24.09.2020 04:24 14,2 C 12,2 C 12,2 C 93 % 1002,0 hPa 0,0 l/m 0 min 0 min 0 W/m 6,4 km/h (2 Bft) 97,87 %
24.09.2020 04:26 14,1 C 12,2 C 12,2 C 93 % 1002,0 hPa 0,0 l/m 0 min 0 min 0 W/m 16,1 km/h (3 Bft) 97,87 %
24.09.2020 04:28 14,0 C 12,2 C 12,2 C 93 % 1002,0 hPa 0,0 l/m 0 min 0 min 0 W/m 12,9 km/h (3 Bft) 97,87 %
24.09.2020 04:30 14,0 C 12,2 C 12,2 C 93 % 1002,0 hPa 0,0 l/m 0 min 0 min 0 W/m 9,7 km/h (2 Bft) 100,00 %
24.09.2020 04:32 13,9 C 12,2 C 12,2 C 93 % 1002,0 hPa 0,0 l/m 0 min 2 min 0 W/m 6,4 km/h (2 Bft) 98,11 %
24.09.2020 04:34 13,9 C 12,2 C 12,2 C 93 % 1001,9 hPa 0,0 l/m 0 min 2 min 0 W/m 6,4 km/h (2 Bft) 95,74 %
24.09.2020 04:36 13,8 C 11,7 C 12,2 C 93 % 1002,0 hPa 0,0 l/m 0 min 0 min 0 W/m 9,7 km/h (2 Bft) 97,87 %
24.09.2020 04:38 13,8 C 12,2 C 12,2 C 93 % 1002,0 hPa 0,0 l/m 0 min 2 min 0 W/m 19,3 km/h (3 Bft) 97,87 %
24.09.2020 04:40 13,7 C 11,7 C 12,2 C 93 % 1002,0 hPa 0,0 l/m 0 min 2 min 0 W/m 12,9 km/h (3 Bft) 97,83 %
24.09.2020 04:42 13,7 C 11,7 C 11,7 C 93 % 1002,0 hPa 0,0 l/m 0 min 0 min 0 W/m 6,4 km/h (2 Bft) 97,87 %
24.09.2020 04:44 13,7 C 11,7 C 11,7 C 93 % 1002,0 hPa 0,0 l/m 0 min 0 min 0 W/m 12,9 km/h (3 Bft) 97,87 %
24.09.2020 04:46 13,6 C 11,7 C 11,7 C 93 % 1002,0 hPa 0,0 l/m 0 min 0 min 0 W/m 12,9 km/h (3 Bft) 93,62 %
24.09.2020 04:48 13,6 C 11,7 C 11,7 C 93 % 1002,1 hPa 0,0 l/m 0 min 0 min 0 W/m 6,4 km/h (2 Bft) 97,87 %
24.09.2020 04:50 13,6 C 11,7 C 11,7 C 93 % 1002,1 hPa 0,0 l/m 0 min 0 min 0 W/m 6,4 km/h (2 Bft) 95,65 %
24.09.2020 04:52 13,6 C 11,7 C 11,7 C 93 % 1002,1 hPa 0,0 l/m 0 min 0 min 0 W/m 3,2 km/h (1 Bft) 97,87 %
24.09.2020 04:54 13,5 C 11,7 C 11,7 C 93 % 1002,2 hPa 0,0 l/m 0 min 0 min 0 W/m 19,3 km/h (3 Bft) 97,87 %
24.09.2020 04:56 13,4 C 11,7 C 11,7 C 93 % 1002,2 hPa 0,0 l/m 0 min 0 min 0 W/m 6,4 km/h (2 Bft) 95,74 %
24.09.2020 04:58 13,4 C 11,7 C 11,7 C 93 % 1002,2 hPa 0,0 l/m 0 min 0 min 0 W/m 12,9 km/h (3 Bft) 97,87 %
24.09.2020 05:00 13,4 C 11,7 C 11,7 C 93 % 1002,3 hPa 0,0 l/m 0 min 0 min 0 W/m 3,2 km/h (1 Bft) 97,87 %
24.09.2020 05:02 13,3 C 11,7 C 11,7 C 93 % 1002,3 hPa 0,0 l/m 0 min 0 min 0 W/m 0,0 km/h (0 Bft) 91,49 %
24.09.2020 05:04 13,3 C 11,7 C 11,7 C 93 % 1002,4 hPa 0,0 l/m 0 min 0 min 0 W/m 3,2 km/h (1 Bft) 95,74 %
24.09.2020 05:06 13,3 C 11,7 C 11,7 C 93 % 1002,4 hPa 0,0 l/m 0 min 0 min 0 W/m 19,3 km/h (3 Bft) 93,62 %
24.09.2020 05:08 13,3 C 11,7 C 11,7 C 93 % 1002,4 hPa 0,0 l/m 0 min 0 min 0 W/m 12,9 km/h (3 Bft) 97,87 %
24.09.2020 05:10 13,2 C 11,7 C 11,7 C 93 % 1002,5 hPa 0,0 l/m 0 min 0 min 0 W/m 6,4 km/h (2 Bft) 95,74 %
24.09.2020 05:12 13,2 C 11,7 C 11,7 C 93 % 1002,4 hPa 0,0 l/m 0 min 0 min 0 W/m 12,9 km/h (3 Bft) 93,62 %
24.09.2020 05:14 13,2 C 11,7 C 11,7 C 93 % 1002,5 hPa 0,0 l/m 0 min 0 min 0 W/m 6,4 km/h (2 Bft) 95,65 %
24.09.2020 05:16 13,2 C 11,7 C 11,7 C 93 % 1002,4 hPa 0,0 l/m 0 min 0 min 0 W/m 12,9 km/h (3 Bft) 93,62 %
24.09.2020 05:18 13,1 C 11,7 C 11,7 C 93 % 1002,5 hPa 0,0 l/m 0 min 0 min 0 W/m 3,2 km/h (1 Bft) 51,11 %
24.09.2020 05:20 13,1 C 11,7 C 11,7 C 93 % 1002,5 hPa 0,0 l/m 0 min 0 min 0 W/m 9,7 km/h (2 Bft) 97,87 %
24.09.2020 05:22 13,1 C 11,7 C 11,7 C 93 % 1002,5 hPa 0,0 l/m 0 min 0 min 0 W/m 3,2 km/h (1 Bft) 97,92 %
24.09.2020 05:24 13,1 C 11,7 C 11,7 C 93 % 1002,5 hPa 0,0 l/m 0 min 0 min 0 W/m 6,4 km/h (2 Bft) 97,83 %
24.09.2020 05:26 13,1 C 11,7 C 11,7 C 93 % 1002,6 hPa 0,0 l/m 0 min 0 min 0 W/m 6,4 km/h (2 Bft) 97,87 %
24.09.2020 05:28 13,0 C 11,7 C 11,7 C 93 % 1002,6 hPa 0,0 l/m 0 min 0 min 0 W/m 6,4 km/h (2 Bft) 97,87 %
24.09.2020 05:30 13,0 C 11,7 C 11,1 C 93 % 1002,5 hPa 0,0 l/m 0 min 0 min 0 W/m 16,1 km/h (3 Bft) 97,87 %
24.09.2020 05:32 12,9 C 11,7 C 11,1 C 93 % 1002,6 hPa 0,0 l/m 0 min 0 min 0 W/m 12,9 km/h (3 Bft) 93,62 %
24.09.2020 05:34 12,9 C 11,1 C 11,1 C 93 % 1002,6 hPa 0,0 l/m 0 min 0 min 0 W/m 3,2 km/h (1 Bft) 100,00 %
24.09.2020 05:36 12,9 C 11,1 C 11,1 C 93 % 1002,6 hPa 0,0 l/m 0 min 0 min 0 W/m 12,9 km/h (3 Bft) 97,83 %
24.09.2020 05:38 12,9 C 11,1 C 11,1 C 93 % 1002,7 hPa 0,0 l/m 0 min 0 min 0 W/m 6,4 km/h (2 Bft) 97,87 %
24.09.2020 05:40 12,8 C 11,7 C 11,1 C 93 % 1002,7 hPa 0,0 l/m 0 min 0 min 0 W/m 6,4 km/h (2 Bft) 97,87 %
24.09.2020 05:42 12,8 C 11,7 C 11,1 C 93 % 1002,7 hPa 0,0 l/m 0 min 0 min 0 W/m 6,4 km/h (2 Bft) 97,87 %
24.09.2020 05:44 12,8 C 11,7 C 11,1 C 93 % 1002,8 hPa 0,0 l/m 0 min 0 min 0 W/m 9,7 km/h (2 Bft) 97,87 %
24.09.2020 05:46 12,8 C 11,7 C 11,1 C 93 % 1002,8 hPa 0,0 l/m 0 min 0 min 0 W/m 6,4 km/h (2 Bft) 97,87 %
24.09.2020 05:48 12,8 C 11,7 C 11,1 C 93 % 1002,9 hPa 0,0 l/m 0 min 0 min 0 W/m 12,9 km/h (3 Bft) 97,83 %
24.09.2020 05:50 12,7 C 11,7 C 11,1 C 93 % 1002,8 hPa 0,0 l/m 0 min 0 min 0 W/m 6,4 km/h (2 Bft) 95,74 %
24.09.2020 05:52 12,7 C 11,7 C 11,1 C 94 % 1002,9 hPa 0,0 l/m 0 min 0 min 0 W/m 6,4 km/h (2 Bft) 95,74 %
24.09.2020 05:54 12,7 C 11,7 C 11,1 C 94 % 1002,9 hPa 0,0 l/m 0 min 0 min 0 W/m 6,4 km/h (2 Bft) 97,87 %
24.09.2020 05:56 12,7 C 11,7 C 11,1 C 93 % 1002,9 hPa 0,0 l/m 0 min 0 min 0 W/m 16,1 km/h (3 Bft) 95,74 %
24.09.2020 05:58 12,7 C 11,7 C 11,1 C 93 % 1003,0 hPa 0,0 l/m 0 min 0 min 0 W/m 22,5 km/h (4 Bft) 97,87 %
24.09.2020 06:00 12,6 C 11,7 C 11,1 C 93 % 1003,0 hPa 0,0 l/m 0 min 0 min 0 W/m 12,9 km/h (3 Bft) 97,83 %
24.09.2020 06:02 12,6 C 11,7 C 11,1 C 93 % 1003,0 hPa 0,0 l/m 0 min 0 min 0 W/m 6,4 km/h (2 Bft) 97,92 %
24.09.2020 06:04 12,6 C 11,7 C 11,1 C 93 % 1003,0 hPa 0,0 l/m 0 min 0 min 0 W/m 9,7 km/h (2 Bft) 97,87 %
24.09.2020 06:08 12,6 C 11,7 C 11,1 C 93 % 1003,1 hPa 0,0 l/m 0 min 0 min 0 W/m 9,7 km/h (2 Bft) 97,87 %
24.09.2020 06:10 12,6 C 11,7 C 11,1 C 93 % 1003,1 hPa 0,0 l/m 0 min 0 min 0 W/m 6,4 km/h (2 Bft) 97,83 %
24.09.2020 06:12 12,6 C 11,7 C 11,1 C 93 % 1003,1 hPa 0,0 l/m 0 min 0 min 0 W/m 6,4 km/h (2 Bft) 97,87 %
24.09.2020 06:14 12,6 C 11,7 C 11,1 C 93 % 1003,1 hPa 0,0 l/m 0 min 0 min 0 W/m 9,7 km/h (2 Bft) 97,87 %
24.09.2020 06:16 12,5 C 11,7 C 11,1 C 93 % 1003,1 hPa 0,0 l/m 0 min 0 min 0 W/m 6,4 km/h (2 Bft) 95,74 %
24.09.2020 06:18 12,5 C 11,7 C 11,1 C 93 % 1003,1 hPa 0,0 l/m 0 min 0 min 0 W/m 16,1 km/h (3 Bft) 97,87 %
24.09.2020 06:20 12,5 C 11,7 C 11,1 C 93 % 1003,1 hPa 0,0 l/m 0 min 0 min 0 W/m 9,7 km/h (2 Bft) 97,87 %
24.09.2020 06:22 12,4 C 11,7 C 11,1 C 94 % 1003,1 hPa 0,0 l/m 0 min 0 min 0 W/m 3,2 km/h (1 Bft) 97,87 %
24.09.2020 06:24 12,4 C 11,1 C 11,1 C 94 % 1003,2 hPa 0,0 l/m 0 min 0 min 0 W/m 6,4 km/h (2 Bft) 97,83 %
24.09.2020 06:26 12,4 C 11,7 C 11,1 C 94 % 1003,3 hPa 0,0 l/m 0 min 0 min 0 W/m 12,9 km/h (3 Bft) 97,87 %
24.09.2020 06:28 12,4 C 11,7 C 11,1 C 94 % 1003,4 hPa 0,0 l/m 0 min 0 min 0 W/m 16,1 km/h (3 Bft) 97,87 %
24.09.2020 06:30 12,4 C 11,7 C 11,1 C 94 % 1003,3 hPa 0,0 l/m 0 min 0 min 0 W/m 16,1 km/h (3 Bft) 97,87 %
24.09.2020 06:32 12,4 C 11,7 C 11,1 C 94 % 1003,4 hPa 0,0 l/m 0 min 0 min 0 W/m 12,9 km/h (3 Bft) 97,92 %
24.09.2020 06:34 12,4 C 11,7 C 11,1 C 94 % 1003,4 hPa 0,0 l/m 0 min 0 min 0 W/m 16,1 km/h (3 Bft) 97,83 %
24.09.2020 06:36 12,3 C 11,7 C 11,1 C 94 % 1003,5 hPa 0,0 l/m 0 min 0 min 0 W/m 12,9 km/h (3 Bft) 97,87 %
24.09.2020 06:38 12,3 C 11,1 C 11,1 C 94 % 1003,5 hPa 0,0 l/m 0 min 0 min 0 W/m 12,9 km/h (3 Bft) 97,87 %
24.09.2020 06:40 12,3 C 11,1 C 10,6 C 94 % 1003,5 hPa 0,0 l/m 0 min 0 min 0 W/m 6,4 km/h (2 Bft) 97,87 %
24.09.2020 06:42 12,3 C 11,1 C 10,6 C 94 % 1003,5 hPa 0,0 l/m 0 min 0 min 0 W/m 16,1 km/h (3 Bft) 95,74 %
24.09.2020 06:44 12,3 C 11,1 C 11,1 C 94 % 1003,5 hPa 0,0 l/m 0 min 0 min 0 W/m 3,2 km/h (1 Bft) 93,62 %
24.09.2020 06:46 12,3 C 11,1 C 10,6 C 93 % 1003,5 hPa 0,0 l/m 0 min 0 min 0 W/m 9,7 km/h (2 Bft) 97,83 %
24.09.2020 06:48 12,3 C 11,1 C 11,1 C 93 % 1003,5 hPa 0,0 l/m 0 min 0 min 0 W/m 9,7 km/h (2 Bft) 97,87 %
24.09.2020 06:50 12,2 C 11,1 C 11,1 C 93 % 1003,5 hPa 0,0 l/m 0 min 0 min 0 W/m 22,5 km/h (4 Bft) 95,74 %
24.09.2020 06:52 12,2 C 11,7 C 11,1 C 93 % 1003,5 hPa 0,0 l/m 0 min 0 min 0 W/m 19,3 km/h (3 Bft) 97,87 %
24.09.2020 06:54 12,2 C 11,7 C 11,1 C 93 % 1003,5 hPa 0,0 l/m 0 min 0 min 0 W/m 22,5 km/h (4 Bft) 97,87 %
24.09.2020 06:56 12,2 C 11,1 C 11,1 C 93 % 1003,5 hPa 0,0 l/m 0 min 0 min 0 W/m 12,9 km/h (3 Bft) 97,87 %
24.09.2020 06:58 12,2 C 11,1 C 10,6 C 93 % 1003,5 hPa 0,0 l/m 0 min 0 min 0 W/m 25,7 km/h (4 Bft) 97,83 %
24.09.2020 07:00 12,2 C 11,1 C 10,6 C 93 % 1003,5 hPa 0,0 l/m 0 min 0 min 0 W/m 12,9 km/h (3 Bft) 93,75 %
24.09.2020 07:02 12,2 C 11,1 C 10,6 C 93 % 1003,5 hPa 0,0 l/m 0 min 0 min 0 W/m 12,9 km/h (3 Bft) 97,83 %
24.09.2020 07:04 12,1 C 11,1 C 10,6 C 93 % 1003,6 hPa 0,0 l/m 0 min 0 min 0 W/m 12,9 km/h (3 Bft) 97,87 %
24.09.2020 07:06 12,1 C 11,1 C 10,6 C 93 % 1003,6 hPa 0,0 l/m 0 min 0 min 0 W/m 16,1 km/h (3 Bft) 97,87 %
24.09.2020 07:08 12,1 C 11,1 C 10,6 C 93 % 1003,6 hPa 0,0 l/m 0 min 0 min 0 W/m 12,9 km/h (3 Bft) 95,65 %
24.09.2020 07:10 12,1 C 11,1 C 10,6 C 93 % 1003,7 hPa 0,0 l/m 0 min 0 min 0 W/m 6,4 km/h (2 Bft) 97,87 %
24.09.2020 07:12 12,1 C 11,1 C 10,6 C 93 % 1003,6 hPa 0,0 l/m 0 min 0 min 0 W/m 16,1 km/h (3 Bft) 97,87 %
24.09.2020 07:14 12,1 C 11,1 C 10,6 C 93 % 1003,7 hPa 0,0 l/m 0 min 0 min 0 W/m 12,9 km/h (3 Bft) 97,87 %
24.09.2020 07:16 12,1 C 11,1 C 10,6 C 93 % 1003,7 hPa 0,0 l/m 0 min 0 min 0 W/m 6,4 km/h (2 Bft) 93,62 %
24.09.2020 07:18 12,1 C 11,1 C 10,6 C 93 % 1003,7 hPa 0,0 l/m 0 min 0 min 0 W/m 6,4 km/h (2 Bft) 97,87 %
24.09.2020 07:20 12,1 C 11,1 C 10,6 C 93 % 1003,8 hPa 0,0 l/m 0 min 0 min 0 W/m 19,3 km/h (3 Bft) 95,74 %
24.09.2020 07:22 12,1 C 11,1 C 10,6 C 93 % 1003,9 hPa 0,0 l/m 0 min 0 min 0 W/m 9,7 km/h (2 Bft) 95,65 %
24.09.2020 07:24 12,1 C 11,1 C 10,6 C 93 % 1004,0 hPa 0,0 l/m 0 min 0 min 0 W/m 6,4 km/h (2 Bft) 100,00 %
24.09.2020 07:26 12,1 C 11,1 C 10,6 C 93 % 1004,0 hPa 0,0 l/m 0 min 0 min 0 W/m 16,1 km/h (3 Bft) 95,65 %
24.09.2020 07:28 12,1 C 11,1 C 10,6 C 93 % 1004,0 hPa 0,0 l/m 0 min 0 min 0 W/m 6,4 km/h (2 Bft) 95,74 %
24.09.2020 07:30 12,1 C 11,1 C 10,6 C 93 % 1004,0 hPa 0,0 l/m 0 min 0 min 0 W/m 19,3 km/h (3 Bft) 97,87 %
24.09.2020 07:32 12,1 C 11,1 C 10,6 C 93 % 1004,0 hPa 0,0 l/m 0 min 0 min 2 W/m 16,1 km/h (3 Bft) 97,87 %
24.09.2020 07:34 12,0 C 11,1 C 10,6 C 93 % 1004,0 hPa 0,0 l/m 0 min 0 min 5 W/m 12,9 km/h (3 Bft) 97,87 %
24.09.2020 07:36 12,0 C 11,1 C 10,6 C 93 % 1004,2 hPa 0,0 l/m 0 min 0 min 5 W/m 29,0 km/h (5 Bft) 97,83 %
24.09.2020 07:38 12,0 C 11,1 C 10,6 C 93 % 1004,1 hPa 0,0 l/m 0 min 0 min 6 W/m 19,3 km/h (3 Bft) 97,87 %
24.09.2020 07:40 12,0 C 11,1 C 10,6 C 93 % 1004,1 hPa 0,0 l/m 0 min 0 min 7 W/m 12,9 km/h (3 Bft) 97,87 %
24.09.2020 07:42 12,0 C 11,1 C 10,6 C 93 % 1004,2 hPa 0,0 l/m 0 min 0 min 7 W/m 22,5 km/h (4 Bft) 97,87 %
24.09.2020 07:44 12,0 C 11,1 C 10,6 C 93 % 1004,2 hPa 0,0 l/m 0 min 0 min 9 W/m 19,3 km/h (3 Bft) 97,87 %
24.09.2020 07:46 12,0 C 11,1 C 10,6 C 93 % 1004,2 hPa 0,0 l/m 0 min 0 min 9 W/m 25,7 km/h (4 Bft) 97,87 %
24.09.2020 07:48 12,0 C 11,1 C 10,6 C 93 % 1004,3 hPa 0,0 l/m 0 min 0 min 10 W/m 22,5 km/h (4 Bft) 100,00 %
24.09.2020 07:50 12,0 C 11,1 C 10,6 C 93 % 1004,3 hPa 0,0 l/m 0 min 0 min 11 W/m 22,5 km/h (4 Bft) 100,00 %
24.09.2020 07:52 12,0 C 11,1 C 10,6 C 93 % 1004,2 hPa 0,0 l/m 0 min 0 min 11 W/m 19,3 km/h (3 Bft) 100,00 %
24.09.2020 07:54 12,0 C 11,1 C 10,6 C 93 % 1004,4 hPa 0,0 l/m 0 min 0 min 12 W/m 19,3 km/h (3 Bft) 100,00 %
24.09.2020 07:56 12,0 C 11,7 C 10,6 C 93 % 1004,3 hPa 0,0 l/m 0 min 0 min 12 W/m 19,3 km/h (3 Bft) 97,87 %
24.09.2020 07:58 12,0 C 11,7 C 10,6 C 93 % 1004,3 hPa 0,0 l/m 0 min 0 min 13 W/m 29,0 km/h (5 Bft) 100,00 %
24.09.2020 08:00 12,0 C 11,7 C 10,6 C 93 % 1004,3 hPa 0,0 l/m 0 min 0 min 14 W/m 22,5 km/h (4 Bft) 100,00 %
24.09.2020 08:02 12,0 C 11,7 C 10,6 C 93 % 1004,3 hPa 0,0 l/m 0 min 0 min 16 W/m 16,1 km/h (3 Bft) 100,00 %
24.09.2020 08:04 12,0 C 11,7 C 10,6 C 93 % 1004,3 hPa 0,0 l/m 0 min 0 min 16 W/m 16,1 km/h (3 Bft) 100,00 %
24.09.2020 08:06 12,0 C 11,7 C 10,6 C 93 % 1004,3 hPa 0,0 l/m 0 min 0 min 17 W/m 19,3 km/h (3 Bft) 100,00 %
24.09.2020 08:08 12,0 C 11,7 C 10,6 C 93 % 1004,4 hPa 0,0 l/m 0 min 0 min 18 W/m 12,9 km/h (3 Bft) 97,87 %
24.09.2020 08:10 12,0 C 11,7 C 10,6 C 93 % 1004,4 hPa 0,0 l/m 0 min 0 min 19 W/m 16,1 km/h (3 Bft) 93,62 %
24.09.2020 08:12 12,0 C 11,7 C 10,6 C 93 % 1004,4 hPa 0,0 l/m 0 min 0 min 20 W/m 22,5 km/h (4 Bft) 97,83 %
24.09.2020 08:14 12,0 C 11,7 C 10,6 C 93 % 1004,4 hPa 0,0 l/m 0 min 0 min 21 W/m 19,3 km/h (3 Bft) 95,74 %
24.09.2020 08:16 12,0 C 11,7 C 10,6 C 93 % 1004,4 hPa 0,0 l/m 0 min 0 min 21 W/m 19,3 km/h (3 Bft) 97,87 %
24.09.2020 08:18 12,0 C 11,7 C 10,6 C 93 % 1004,5 hPa 0,0 l/m 0 min 0 min 23 W/m 25,7 km/h (4 Bft) 97,87 %
24.09.2020 08:20 12,0 C 11,7 C 11,1 C 92 % 1004,6 hPa 0,0 l/m 0 min 0 min 23 W/m 29,0 km/h (5 Bft) 97,87 %
24.09.2020 08:22 12,1 C 11,7 C 11,1 C 92 % 1004,5 hPa 0,0 l/m 0 min 0 min 25 W/m 22,5 km/h (4 Bft) 97,87 %
24.09.2020 08:24 12,1 C 11,7 C 11,1 C 92 % 1004,5 hPa 0,0 l/m 0 min 0 min 25 W/m 22,5 km/h (4 Bft) 97,83 %
24.09.2020 08:26 12,1 C 11,7 C 11,1 C 92 % 1004,6 hPa 0,0 l/m 0 min 0 min 26 W/m 25,7 km/h (4 Bft) 97,87 %
24.09.2020 08:28 12,1 C 11,7 C 11,1 C 92 % 1004,6 hPa 0,0 l/m 0 min 0 min 26 W/m 16,1 km/h (3 Bft) 95,74 %
24.09.2020 08:30 12,1 C 11,7 C 11,1 C 92 % 1004,6 hPa 0,0 l/m 0 min 0 min 26 W/m 22,5 km/h (4 Bft) 97,87 %
24.09.2020 08:32 12,1 C 11,7 C 11,1 C 92 % 1004,6 hPa 0,0 l/m 0 min 0 min 26 W/m 12,9 km/h (3 Bft) 97,87 %
24.09.2020 08:34 12,1 C 11,7 C 11,1 C 92 % 1004,6 hPa 0,0 l/m 0 min 0 min 28 W/m 22,5 km/h (4 Bft) 97,87 %
24.09.2020 08:36 12,1 C 11,7 C 11,1 C 92 % 1004,5 hPa 0,0 l/m 0 min 0 min 28 W/m 16,1 km/h (3 Bft) 97,83 %
24.09.2020 08:38 12,1 C 11,7 C 11,1 C 92 % 1004,4 hPa 0,0 l/m 0 min 0 min 30 W/m 12,9 km/h (3 Bft) 97,87 %
24.09.2020 08:40 12,2 C 11,7 C 11,1 C 92 % 1004,5 hPa 0,0 l/m 0 min 0 min 30 W/m 12,9 km/h (3 Bft) 97,87 %
24.09.2020 08:42 12,2 C 11,7 C 11,1 C 92 % 1004,5 hPa 0,0 l/m 0 min 0 min 32 W/m 29,0 km/h (5 Bft) 97,87 %
24.09.2020 08:44 12,2 C 11,7 C 11,1 C 92 % 1004,5 hPa 0,0 l/m 0 min 0 min 32 W/m 19,3 km/h (3 Bft) 93,62 %
24.09.2020 08:46 12,2 C 11,7 C 11,1 C 92 % 1004,6 hPa 0,0 l/m 0 min 0 min 33 W/m 16,1 km/h (3 Bft) 95,74 %
24.09.2020 08:48 12,2 C 12,2 C 11,1 C 92 % 1004,5 hPa 0,0 l/m 0 min 0 min 34 W/m 16,1 km/h (3 Bft) 97,83 %
24.09.2020 08:50 12,2 C 12,2 C 11,1 C 92 % 1004,5 hPa 0,0 l/m 0 min 0 min 35 W/m 22,5 km/h (4 Bft) 97,87 %
24.09.2020 08:52 12,2 C 12,2 C 11,1 C 91 % 1004,6 hPa 0,0 l/m 0 min 0 min 37 W/m 25,7 km/h (4 Bft) 95,74 %
24.09.2020 08:54 12,3 C 12,2 C 11,1 C 91 % 1004,5 hPa 0,0 l/m 0 min 0 min 39 W/m 19,3 km/h (3 Bft) 97,87 %
24.09.2020 08:56 12,3 C 12,2 C 11,1 C 91 % 1004,5 hPa 0,0 l/m 0 min 0 min 39 W/m 22,5 km/h (4 Bft) 100,00 %
24.09.2020 08:58 12,3 C 12,2 C 11,1 C 91 % 1004,6 hPa 0,0 l/m 0 min 0 min 40 W/m 22,5 km/h (4 Bft) 100,00 %
24.09.2020 09:00 12,3 C 12,2 C 11,1 C 91 % 1004,5 hPa 0,0 l/m 0 min 0 min 42 W/m 22,5 km/h (4 Bft) 100,00 %
24.09.2020 09:02 12,3 C 12,2 C 11,1 C 91 % 1004,6 hPa 0,0 l/m 0 min 0 min 44 W/m 16,1 km/h (3 Bft) 100,00 %
24.09.2020 09:04 12,3 C 12,2 C 11,1 C 91 % 1004,6 hPa 0,0 l/m 0 min 0 min 46 W/m 19,3 km/h (3 Bft) 100,00 %
24.09.2020 09:06 12,4 C 12,2 C 11,1 C 91 % 1004,6 hPa 0,0 l/m 0 min 0 min 47 W/m 22,5 km/h (4 Bft) 97,87 %
24.09.2020 09:08 12,4 C 12,2 C 11,1 C 91 % 1004,6 hPa 0,0 l/m 0 min 0 min 48 W/m 22,5 km/h (4 Bft) 100,00 %
24.09.2020 09:10 12,4 C 12,2 C 11,1 C 91 % 1004,6 hPa 0,0 l/m 0 min 0 min 50 W/m 9,7 km/h (2 Bft) 100,00 %
24.09.2020 09:12 12,4 C 12,2 C 11,7 C 91 % 1004,6 hPa 0,0 l/m 0 min 0 min 53 W/m 22,5 km/h (4 Bft) 100,00 %
24.09.2020 09:14 12,5 C 12,2 C 11,7 C 91 % 1004,7 hPa 0,0 l/m 0 min 0 min 53 W/m 16,1 km/h (3 Bft) 100,00 %
24.09.2020 09:16 12,6 C 12,2 C 11,7 C 91 % 1004,6 hPa 0,0 l/m 0 min 0 min 54 W/m 19,3 km/h (3 Bft) 100,00 %
24.09.2020 09:18 12,6 C 12,8 C 11,7 C 90 % 1004,7 hPa 0,0 l/m 0 min 0 min 56 W/m 25,7 km/h (4 Bft) 95,74 %
24.09.2020 09:20 12,6 C 12,8 C 11,7 C 90 % 1004,7 hPa 0,0 l/m 0 min 0 min 57 W/m 19,3 km/h (3 Bft) 100,00 %
24.09.2020 09:22 12,6 C 12,8 C 11,7 C 90 % 1004,7 hPa 0,0 l/m 0 min 0 min 59 W/m 22,5 km/h (4 Bft) 100,00 %
24.09.2020 09:24 12,7 C 12,8 C 11,7 C 90 % 1004,8 hPa 0,0 l/m 0 min 0 min 61 W/m 25,7 km/h (4 Bft) 100,00 %
24.09.2020 09:26 12,7 C 12,8 C 11,7 C 90 % 1004,8 hPa 0,0 l/m 0 min 0 min 64 W/m 29,0 km/h (5 Bft) 96,43 %
24.09.2020 09:28 12,7 C 12,8 C 11,7 C 90 % 1004,8 hPa 0,0 l/m 0 min 0 min 67 W/m 25,7 km/h (4 Bft) 97,83 %
24.09.2020 09:30 12,7 C 12,8 C 11,7 C 90 % 1004,8 hPa 0,0 l/m 0 min 0 min 72 W/m 38,6 km/h (5 Bft) 100,00 %
24.09.2020 09:32 12,8 C 12,8 C 11,7 C 90 % 1004,8 hPa 0,0 l/m 0 min 0 min 108 W/m 19,3 km/h (3 Bft) 100,00 %
24.09.2020 09:34 12,8 C 12,8 C 11,7 C 90 % 1004,9 hPa 0,0 l/m 2 min 0 min 242 W/m 22,5 km/h (4 Bft) 100,00 %
24.09.2020 09:36 12,8 C 13,9 C 11,7 C 90 % 1005,0 hPa 0,0 l/m 2 min 0 min 294 W/m 22,5 km/h (4 Bft) 97,87 %
24.09.2020 09:38 12,9 C 15,0 C 11,7 C 90 % 1005,0 hPa 0,0 l/m 2 min 0 min 300 W/m 25,7 km/h (4 Bft) 94,92 %
24.09.2020 09:40 12,9 C 16,1 C 11,7 C 89 % 1004,9 hPa 0,0 l/m 2 min 0 min 276 W/m 16,1 km/h (3 Bft) 100,00 %
24.09.2020 09:42 13,1 C 16,1 C 12,2 C 89 % 1005,0 hPa 0,0 l/m 2 min 0 min 264 W/m 16,1 km/h (3 Bft) 95,74 %
24.09.2020 09:44 13,1 C 15,6 C 12,2 C 89 % 1005,0 hPa 0,0 l/m 2 min 0 min 200 W/m 22,5 km/h (4 Bft) 97,83 %
24.09.2020 09:46 13,2 C 15,0 C 12,2 C 89 % 1005,0 hPa 0,0 l/m 2 min 0 min 194 W/m 22,5 km/h (4 Bft) 95,74 %
24.09.2020 09:48 13,3 C 15,0 C 12,2 C 89 % 1004,9 hPa 0,0 l/m 2 min 0 min 218 W/m 19,3 km/h (3 Bft) 97,87 %
24.09.2020 09:50 13,3 C 15,0 C 12,2 C 88 % 1005,1 hPa 0,0 l/m 2 min 0 min 242 W/m 19,3 km/h (3 Bft) 95,74 %
24.09.2020 09:52 13,4 C 15,6 C 12,2 C 88 % 1005,0 hPa 0,0 l/m 2 min 0 min 247 W/m 25,7 km/h (4 Bft) 93,62 %
24.09.2020 09:54 13,4 C 16,1 C 12,2 C 88 % 1005,1 hPa 0,0 l/m 2 min 0 min 270 W/m 22,5 km/h (4 Bft) 93,62 %
24.09.2020 09:56 13,6 C 16,1 C 12,2 C 88 % 1005,1 hPa 0,0 l/m 2 min 0 min 283 W/m 29,0 km/h (5 Bft) 95,65 %
24.09.2020 09:58 13,6 C 15,6 C 12,8 C 87 % 1005,1 hPa 0,0 l/m 2 min 0 min 246 W/m 22,5 km/h (4 Bft) 95,74 %
24.09.2020 10:00 13,6 C 15,0 C 13,3 C 87 % 1005,1 hPa 0,0 l/m 0 min 0 min 159 W/m 25,7 km/h (4 Bft) 95,74 %
24.09.2020 10:02 13,7 C 15,6 C 13,9 C 86 % 1005,1 hPa 0,0 l/m 0 min 0 min 167 W/m 29,0 km/h (5 Bft) 95,83 %
24.09.2020 10:04 13,8 C 16,1 C 15,0 C 86 % 1005,1 hPa 0,0 l/m 2 min 0 min 256 W/m 22,5 km/h (4 Bft) 95,74 %
24.09.2020 10:06 13,8 C 16,7 C 15,0 C 86 % 1005,1 hPa 0,0 l/m 2 min 0 min 292 W/m 25,7 km/h (4 Bft) 95,65 %
24.09.2020 10:08 13,9 C 16,1 C 15,0 C 86 % 1005,1 hPa 0,0 l/m 2 min 0 min 345 W/m 25,7 km/h (4 Bft) 95,74 %
24.09.2020 10:10 14,0 C 16,7 C 15,0 C 85 % 1005,1 hPa 0,0 l/m 2 min 0 min 225 W/m 19,3 km/h (3 Bft) 95,74 %
24.09.2020 10:12 14,1 C 17,2 C 14,4 C 85 % 1005,3 hPa 0,0 l/m 2 min 0 min 383 W/m 22,5 km/h (4 Bft) 91,49 %
24.09.2020 10:14 14,2 C 17,2 C 14,4 C 85 % 1005,2 hPa 0,0 l/m 2 min 0 min 411 W/m 22,5 km/h (4 Bft) 95,74 %
24.09.2020 10:16 14,3 C 17,8 C 14,4 C 85 % 1005,1 hPa 0,0 l/m 2 min 0 min 418 W/m 29,0 km/h (5 Bft) 93,62 %
24.09.2020 10:18 14,3 C 17,2 C 13,9 C 84 % 1005,1 hPa 0,0 l/m 2 min 0 min 341 W/m 19,3 km/h (3 Bft) 95,65 %
24.09.2020 10:20 14,3 C 18,3 C 13,9 C 84 % 1005,2 hPa 0,0 l/m 2 min 0 min 381 W/m 12,9 km/h (3 Bft) 95,74 %
24.09.2020 10:22 14,5 C 18,9 C 13,9 C 84 % 1005,2 hPa 0,0 l/m 2 min 0 min 428 W/m 25,7 km/h (4 Bft) 95,74 %
24.09.2020 10:24 14,6 C 18,3 C 14,4 C 84 % 1005,2 hPa 0,0 l/m 2 min 0 min 434 W/m 25,7 km/h (4 Bft) 95,74 %
24.09.2020 10:26 14,7 C 18,9 C 13,9 C 84 % 1005,2 hPa 0,0 l/m 2 min 0 min 430 W/m 25,7 km/h (4 Bft) 95,74 %
24.09.2020 10:28 14,7 C 18,3 C 13,9 C 82 % 1005,1 hPa 0,0 l/m 2 min 0 min 443 W/m 22,5 km/h (4 Bft) 95,74 %
24.09.2020 10:30 14,8 C 18,3 C 13,9 C 82 % 1005,1 hPa 0,0 l/m 2 min 0 min 443 W/m 22,5 km/h (4 Bft) 95,65 %
24.09.2020 10:32 14,8 C 18,9 C 13,9 C 82 % 1005,1 hPa 0,0 l/m 2 min 0 min 450 W/m 16,1 km/h (3 Bft) 95,74 %
24.09.2020 10:34 14,9 C 18,9 C 13,9 C 82 % 1005,2 hPa 0,0 l/m 2 min 0 min 458 W/m 25,7 km/h (4 Bft) 93,62 %
24.09.2020 10:36 15,0 C 18,9 C 14,4 C 82 % 1005,2 hPa 0,0 l/m 2 min 0 min 436 W/m 19,3 km/h (3 Bft) 97,87 %
24.09.2020 10:38 15,1 C 18,9 C 14,4 C 81 % 1005,2 hPa 0,0 l/m 2 min 0 min 477 W/m 25,7 km/h (4 Bft) 97,87 %
24.09.2020 10:40 15,2 C 18,3 C 14,4 C 81 % 1005,2 hPa 0,0 l/m 2 min 0 min 445 W/m 38,6 km/h (5 Bft) 97,87 %
24.09.2020 10:42 15,3 C 18,9 C 14,4 C 80 % 1005,2 hPa 0,0 l/m 2 min 0 min 423 W/m 25,7 km/h (4 Bft) 91,30 %
24.09.2020 10:44 15,3 C 17,2 C 13,9 C 79 % 1005,2 hPa 0,0 l/m 2 min 0 min 421 W/m 29,0 km/h (5 Bft) 93,62 %
24.09.2020 10:46 15,4 C 18,3 C 13,9 C 79 % 1005,2 hPa 0,0 l/m 2 min 0 min 483 W/m 16,1 km/h (3 Bft) 95,74 %
24.09.2020 10:48 15,5 C 18,9 C 14,4 C 79 % 1005,2 hPa 0,0 l/m 2 min 0 min 538 W/m 22,5 km/h (4 Bft) 95,74 %
24.09.2020 10:50 15,6 C 19,4 C 14,4 C 79 % 1005,3 hPa 0,0 l/m 2 min 0 min 507 W/m 22,5 km/h (4 Bft) 95,74 %
24.09.2020 10:52 15,6 C 18,9 C 14,4 C 78 % 1005,3 hPa 0,0 l/m 2 min 0 min 457 W/m 29,0 km/h (5 Bft) 97,87 %
24.09.2020 10:54 15,7 C 18,9 C 14,4 C 78 % 1005,2 hPa 0,0 l/m 2 min 0 min 488 W/m 29,0 km/h (5 Bft) 97,83 %
24.09.2020 10:56 15,7 C 17,8 C 14,4 C 78 % 1005,2 hPa 0,0 l/m 2 min 0 min 365 W/m 25,7 km/h (4 Bft) 97,87 %
24.09.2020 10:58 15,7 C 17,2 C 14,4 C 77 % 1005,3 hPa 0,0 l/m 2 min 0 min 386 W/m 35,4 km/h (5 Bft) 97,87 %
24.09.2020 11:00 15,7 C 17,8 C 14,4 C 77 % 1005,2 hPa 0,0 l/m 2 min 0 min 531 W/m 32,2 km/h (5 Bft) 97,87 %
24.09.2020 11:02 15,7 C 18,9 C 14,4 C 76 % 1005,3 hPa 0,0 l/m 2 min 0 min 567 W/m 32,2 km/h (5 Bft) 97,92 %
24.09.2020 11:04 15,8 C 18,9 C 14,4 C 76 % 1005,3 hPa 0,0 l/m 2 min 0 min 571 W/m 35,4 km/h (5 Bft) 93,48 %
24.09.2020 11:06 15,8 C 19,4 C 14,4 C 76 % 1005,2 hPa 0,0 l/m 2 min 0 min 558 W/m 41,8 km/h (6 Bft) 97,87 %
24.09.2020 11:08 15,9 C 21,1 C 15,0 C 76 % 1005,3 hPa 0,0 l/m 2 min 0 min 563 W/m 12,9 km/h (3 Bft) 97,87 %
24.09.2020 11:10 16,0 C 20,0 C 15,0 C 76 % 1005,1 hPa 0,0 l/m 2 min 0 min 559 W/m 16,1 km/h (3 Bft) 97,87 %
24.09.2020 11:12 16,1 C 20,0 C 15,0 C 76 % 1005,2 hPa 0,0 l/m 2 min 0 min 572 W/m 25,7 km/h (4 Bft) 97,87 %
24.09.2020 11:14 16,1 C 20,0 C 15,0 C 75 % 1005,2 hPa 0,0 l/m 2 min 0 min 613 W/m 29,0 km/h (5 Bft) 97,87 %
24.09.2020 11:16 16,2 C 18,3 C 15,0 C 74 % 1005,3 hPa 0,0 l/m 2 min 0 min 620 W/m 29,0 km/h (5 Bft) 97,83 %
24.09.2020 11:18 16,3 C 18,9 C 15,0 C 74 % 1005,2 hPa 0,0 l/m 2 min 0 min 369 W/m 22,5 km/h (4 Bft) 97,87 %
24.09.2020 11:20 16,3 C 20,0 C 15,0 C 74 % 1005,2 hPa 0,0 l/m 2 min 0 min 481 W/m 29,0 km/h (5 Bft) 97,87 %
24.09.2020 11:22 16,4 C 20,0 C 15,6 C 73 % 1005,1 hPa 0,0 l/m 2 min 0 min 615 W/m 29,0 km/h (5 Bft) 97,87 %
24.09.2020 11:24 16,5 C 20,6 C 15,6 C 73 % 1005,2 hPa 0,0 l/m 2 min 0 min 598 W/m 22,5 km/h (4 Bft) 100,00 %
24.09.2020 11:26 16,6 C 20,6 C 15,6 C 72 % 1005,1 hPa 0,0 l/m 2 min 0 min 622 W/m 29,0 km/h (5 Bft) 97,87 %
24.09.2020 11:28 16,6 C 20,6 C 15,6 C 72 % 1005,0 hPa 0,0 l/m 2 min 0 min 630 W/m 25,7 km/h (4 Bft) 100,00 %
24.09.2020 11:30 16,6 C 20,6 C 15,6 C 71 % 1005,1 hPa 0,0 l/m 2 min 0 min 603 W/m 25,7 km/h (4 Bft) 97,87 %
24.09.2020 11:32 16,7 C 21,7 C 15,6 C 71 % 1005,0 hPa 0,0 l/m 2 min 0 min 568 W/m 22,5 km/h (4 Bft) 100,00 %
24.09.2020 11:34 16,8 C 19,4 C 15,0 C 70 % 1005,0 hPa 0,0 l/m 2 min 0 min 450 W/m 25,7 km/h (4 Bft) 100,00 %
24.09.2020 11:36 16,8 C 19,4 C 15,6 C 70 % 1005,0 hPa 0,0 l/m 2 min 0 min 492 W/m 38,6 km/h (5 Bft) 100,00 %
24.09.2020 11:38 16,8 C 20,0 C 15,6 C 68 % 1005,0 hPa 0,0 l/m 2 min 0 min 642 W/m 35,4 km/h (5 Bft) 100,00 %
24.09.2020 11:40 16,8 C 21,1 C 15,6 C 69 % 1004,8 hPa 0,0 l/m 2 min 0 min 645 W/m 38,6 km/h (5 Bft) 100,00 %
24.09.2020 11:42 16,9 C 20,6 C 15,6 C 68 % 1004,8 hPa 0,0 l/m 2 min 0 min 622 W/m 22,5 km/h (4 Bft) 97,83 %
24.09.2020 11:44 17,0 C 21,1 C 15,6 C 67 % 1004,9 hPa 0,0 l/m 2 min 0 min 608 W/m 25,7 km/h (4 Bft) 100,00 %
24.09.2020 11:46 17,0 C 21,1 C 15,6 C 67 % 1004,9 hPa 0,0 l/m 2 min 0 min 607 W/m 19,3 km/h (3 Bft) 100,00 %
24.09.2020 11:48 17,1 C 20,6 C 15,6 C 67 % 1005,0 hPa 0,0 l/m 2 min 0 min 543 W/m 25,7 km/h (4 Bft) 100,00 %
24.09.2020 11:50 17,1 C 19,4 C 15,6 C 66 % 1005,0 hPa 0,0 l/m 2 min 0 min 499 W/m 32,2 km/h (5 Bft) 100,00 %
24.09.2020 11:52 17,0 C 18,9 C 15,0 C 66 % 1005,0 hPa 0,0 l/m 2 min 0 min 354 W/m 35,4 km/h (5 Bft) 100,00 %
24.09.2020 11:54 16,9 C 18,9 C 15,0 C 66 % 1004,9 hPa 0,0 l/m 2 min 0 min 506 W/m 35,4 km/h (5 Bft) 100,00 %
24.09.2020 11:56 16,9 C 20,0 C 15,6 C 66 % 1004,8 hPa 0,0 l/m 2 min 0 min 636 W/m 22,5 km/h (4 Bft) 97,87 %
24.09.2020 11:58 16,9 C 20,6 C 15,6 C 67 % 1004,9 hPa 0,0 l/m 2 min 0 min 630 W/m 22,5 km/h (4 Bft) 97,87 %
24.09.2020 12:00 17,0 C 20,6 C 15,6 C 67 % 1004,9 hPa 0,0 l/m 2 min 0 min 633 W/m 25,7 km/h (4 Bft) 100,00 %
24.09.2020 12:02 17,0 C 20,6 C 15,6 C 67 % 1004,7 hPa 0,0 l/m 2 min 0 min 633 W/m 25,7 km/h (4 Bft) 100,00 %
24.09.2020 12:04 17,1 C 21,1 C 15,6 C 67 % 1004,7 hPa 0,0 l/m 2 min 0 min 640 W/m 25,7 km/h (4 Bft) 100,00 %
24.09.2020 12:08 17,2 C 21,1 C 16,1 C 66 % 1004,7 hPa 0,0 l/m 4 min 0 min 553 W/m 25,7 km/h (4 Bft) 100,00 %
24.09.2020 12:10 17,3 C 21,7 C 16,1 C 66 % 1004,7 hPa 0,0 l/m 2 min 0 min 538 W/m 22,5 km/h (4 Bft) 100,00 %
24.09.2020 12:12 17,4 C 22,8 C 16,1 C 66 % 1004,7 hPa 0,0 l/m 2 min 0 min 637 W/m 22,5 km/h (4 Bft) 100,00 %
24.09.2020 12:14 17,5 C 22,2 C 16,7 C 66 % 1004,7 hPa 0,0 l/m 2 min 0 min 643 W/m 19,3 km/h (3 Bft) 100,00 %
24.09.2020 12:16 17,6 C 22,2 C 16,7 C 65 % 1004,6 hPa 0,0 l/m 2 min 0 min 641 W/m 25,7 km/h (4 Bft) 100,00 %
24.09.2020 12:18 17,7 C 21,7 C 16,7 C 65 % 1004,6 hPa 0,0 l/m 2 min 0 min 630 W/m 22,5 km/h (4 Bft) 100,00 %
24.09.2020 12:20 17,8 C 22,2 C 16,1 C 64 % 1004,6 hPa 0,0 l/m 2 min 0 min 635 W/m 29,0 km/h (5 Bft) 100,00 %
24.09.2020 12:22 17,8 C 22,2 C 16,1 C 64 % 1004,5 hPa 0,0 l/m 2 min 0 min 619 W/m 22,5 km/h (4 Bft) 100,00 %
24.09.2020 12:24 17,9 C 21,7 C 16,1 C 64 % 1004,4 hPa 0,0 l/m 2 min 0 min 559 W/m 19,3 km/h (3 Bft) 100,00 %
24.09.2020 12:26 17,9 C 21,7 C 16,1 C 63 % 1004,4 hPa 0,0 l/m 2 min 0 min 539 W/m 19,3 km/h (3 Bft) 95,74 %
24.09.2020 12:28 18,1 C 20,6 C 16,1 C 63 % 1004,5 hPa 0,0 l/m 2 min 0 min 500 W/m 32,2 km/h (5 Bft) 95,45 %
24.09.2020 12:30 18,1 C 21,1 C 16,1 C 62 % 1004,5 hPa 0,0 l/m 2 min 0 min 528 W/m 25,7 km/h (4 Bft) 97,87 %
24.09.2020 12:32 18,1 C 21,1 C 16,7 C 63 % 1004,5 hPa 0,0 l/m 2 min 0 min 626 W/m 25,7 km/h (4 Bft) 97,92 %
24.09.2020 12:34 18,1 C 21,7 C 16,7 C 63 % 1004,5 hPa 0,0 l/m 2 min 0 min 601 W/m 25,7 km/h (4 Bft) 93,62 %
24.09.2020 12:36 18,1 C 21,1 C 16,7 C 61 % 1004,5 hPa 0,0 l/m 2 min 0 min 640 W/m 32,2 km/h (5 Bft) 95,74 %
24.09.2020 12:38 18,2 C 21,1 C 16,7 C 60 % 1004,4 hPa 0,0 l/m 2 min 0 min 584 W/m 32,2 km/h (5 Bft) 97,83 %
24.09.2020 12:40 18,2 C 21,1 C 16,7 C 61 % 1004,4 hPa 0,0 l/m 2 min 0 min 605 W/m 25,7 km/h (4 Bft) 97,87 %
24.09.2020 12:42 18,2 C 22,2 C 16,7 C 61 % 1004,4 hPa 0,0 l/m 2 min 0 min 652 W/m 19,3 km/h (3 Bft) 95,74 %
24.09.2020 12:44 18,3 C 22,8 C 17,2 C 62 % 1004,4 hPa 0,0 l/m 2 min 0 min 617 W/m 32,2 km/h (5 Bft) 97,87 %
24.09.2020 12:46 18,3 C 22,2 C 17,2 C 61 % 1004,4 hPa 0,0 l/m 2 min 0 min 666 W/m 29,0 km/h (5 Bft) 91,49 %
24.09.2020 12:48 18,4 C 22,2 C 17,2 C 61 % 1004,3 hPa 0,0 l/m 2 min 0 min 592 W/m 22,5 km/h (4 Bft) 95,74 %
24.09.2020 12:50 18,4 C 22,2 C 17,2 C 61 % 1004,4 hPa 0,0 l/m 2 min 0 min 554 W/m 19,3 km/h (3 Bft) 97,83 %
24.09.2020 12:52 18,5 C 21,7 C 17,2 C 59 % 1004,3 hPa 0,0 l/m 2 min 0 min 528 W/m 35,4 km/h (5 Bft) 97,87 %
24.09.2020 12:54 18,6 C 20,6 C 17,2 C 58 % 1004,3 hPa 0,0 l/m 2 min 0 min 516 W/m 22,5 km/h (4 Bft) 97,87 %
24.09.2020 12:56 18,6 C 20,6 C 17,2 C 58 % 1004,3 hPa 0,0 l/m 2 min 0 min 502 W/m 25,7 km/h (4 Bft) 97,87 %
24.09.2020 12:58 18,6 C 20,6 C 16,7 C 58 % 1004,3 hPa 0,0 l/m 2 min 0 min 511 W/m 25,7 km/h (4 Bft) 95,74 %
24.09.2020 13:00 18,6 C 21,1 C 17,2 C 59 % 1004,3 hPa 0,0 l/m 2 min 0 min 536 W/m 19,3 km/h (3 Bft) 95,74 %
24.09.2020 13:02 18,6 C 21,7 C 17,2 C 59 % 1004,3 hPa 0,0 l/m 2 min 0 min 483 W/m 19,3 km/h (3 Bft) 95,74 %
24.09.2020 13:04 18,6 C 21,7 C 17,2 C 59 % 1004,2 hPa 0,0 l/m 2 min 0 min 478 W/m 25,7 km/h (4 Bft) 95,74 %
24.09.2020 13:06 18,7 C 22,2 C 17,2 C 58 % 1004,2 hPa 0,0 l/m 2 min 0 min 600 W/m 29,0 km/h (5 Bft) 93,62 %
24.09.2020 13:08 18,7 C 22,8 C 17,2 C 58 % 1004,2 hPa 0,0 l/m 2 min 0 min 643 W/m 29,0 km/h (5 Bft) 95,74 %
24.09.2020 13:10 18,7 C 22,8 C 17,2 C 57 % 1004,2 hPa 0,0 l/m 2 min 0 min 706 W/m 29,0 km/h (5 Bft) 95,74 %
24.09.2020 13:12 18,8 C 22,2 C 17,2 C 56 % 1004,2 hPa 0,0 l/m 2 min 0 min 705 W/m 25,7 km/h (4 Bft) 97,87 %
24.09.2020 13:14 18,8 C 21,1 C 17,2 C 56 % 1004,1 hPa 0,0 l/m 2 min 0 min 690 W/m 35,4 km/h (5 Bft) 95,65 %
24.09.2020 13:16 18,8 C 21,7 C 17,2 C 57 % 1004,2 hPa 0,0 l/m 2 min 0 min 521 W/m 16,1 km/h (3 Bft) 97,87 %
24.09.2020 13:18 18,8 C 21,1 C 17,2 C 56 % 1004,2 hPa 0,0 l/m 2 min 0 min 496 W/m 29,0 km/h (5 Bft) 93,62 %
24.09.2020 13:20 18,8 C 21,1 C 17,2 C 55 % 1004,2 hPa 0,0 l/m 2 min 0 min 517 W/m 35,4 km/h (5 Bft) 97,87 %
24.09.2020 13:22 18,8 C 21,1 C 17,2 C 55 % 1004,0 hPa 0,0 l/m 2 min 0 min 512 W/m 29,0 km/h (5 Bft) 97,87 %
24.09.2020 13:24 18,8 C 21,1 C 17,2 C 55 % 1004,0 hPa 0,0 l/m 2 min 0 min 450 W/m 25,7 km/h (4 Bft) 93,62 %
24.09.2020 13:26 18,8 C 21,1 C 17,2 C 55 % 1003,9 hPa 0,0 l/m 2 min 0 min 482 W/m 29,0 km/h (5 Bft) 97,83 %
24.09.2020 13:28 18,8 C 21,1 C 17,2 C 55 % 1003,9 hPa 0,0 l/m 2 min 0 min 558 W/m 29,0 km/h (5 Bft) 97,87 %
24.09.2020 13:30 18,8 C 21,7 C 17,2 C 56 % 1004,0 hPa 0,0 l/m 2 min 0 min 545 W/m 25,7 km/h (4 Bft) 97,87 %
24.09.2020 13:32 18,8 C 21,7 C 17,2 C 56 % 1003,9 hPa 0,0 l/m 2 min 0 min 561 W/m 32,2 km/h (5 Bft) 97,87 %
24.09.2020 13:34 18,9 C 21,1 C 17,8 C 55 % 1004,0 hPa 0,0 l/m 2 min 0 min 602 W/m 29,0 km/h (5 Bft) 97,87 %
24.09.2020 13:36 18,9 C 22,2 C 17,8 C 56 % 1004,0 hPa 0,0 l/m 2 min 0 min 586 W/m 25,7 km/h (4 Bft) 93,62 %
24.09.2020 13:38 18,9 C 21,7 C 17,8 C 55 % 1003,9 hPa 0,0 l/m 2 min 0 min 604 W/m 38,6 km/h (5 Bft) 97,83 %
24.09.2020 13:40 18,9 C 21,7 C 17,8 C 54 % 1003,9 hPa 0,0 l/m 2 min 0 min 591 W/m 29,0 km/h (5 Bft) 97,87 %
24.09.2020 13:42 19,0 C 22,8 C 17,8 C 56 % 1003,9 hPa 0,0 l/m 2 min 0 min 606 W/m 22,5 km/h (4 Bft) 100,00 %
24.09.2020 13:44 19,1 C 23,3 C 18,3 C 56 % 1003,8 hPa 0,0 l/m 2 min 0 min 572 W/m 25,7 km/h (4 Bft) 97,87 %
24.09.2020 13:46 19,1 C 23,3 C 19,4 C 55 % 1003,8 hPa 0,0 l/m 2 min 0 min 644 W/m 22,5 km/h (4 Bft) 100,00 %
24.09.2020 13:48 19,1 C 23,3 C 20,6 C 55 % 1003,9 hPa 0,0 l/m 2 min 0 min 650 W/m 29,0 km/h (5 Bft) 100,00 %
24.09.2020 13:50 19,2 C 23,3 C 21,1 C 55 % 1003,9 hPa 0,0 l/m 2 min 0 min 662 W/m 32,2 km/h (5 Bft) 97,83 %
24.09.2020 13:52 19,2 C 22,8 C 20,0 C 54 % 1003,9 hPa 0,0 l/m 2 min 0 min 661 W/m 29,0 km/h (5 Bft) 100,00 %
24.09.2020 13:54 19,3 C 22,2 C 19,4 C 54 % 1003,9 hPa 0,0 l/m 2 min 0 min 582 W/m 25,7 km/h (4 Bft) 97,87 %
24.09.2020 13:56 19,3 C 22,2 C 18,9 C 54 % 1003,8 hPa 0,0 l/m 2 min 0 min 601 W/m 32,2 km/h (5 Bft) 100,00 %
24.09.2020 13:58 19,3 C 22,2 C 18,9 C 54 % 1003,8 hPa 0,0 l/m 2 min 0 min 680 W/m 35,4 km/h (5 Bft) 100,00 %
24.09.2020 14:00 19,3 C 22,8 C 18,9 C 54 % 1003,8 hPa 0,0 l/m 2 min 0 min 713 W/m 41,8 km/h (6 Bft) 100,00 %
24.09.2020 14:02 19,3 C 22,8 C 18,3 C 54 % 1003,7 hPa 0,0 l/m 2 min 0 min 686 W/m 29,0 km/h (5 Bft) 97,83 %
24.09.2020 14:04 19,4 C 23,3 C 18,3 C 53 % 1003,8 hPa 0,0 l/m 2 min 0 min 737 W/m 29,0 km/h (5 Bft) 100,00 %
24.09.2020 14:06 19,4 C 23,3 C 18,3 C 53 % 1003,7 hPa 0,0 l/m 2 min 0 min 734 W/m 32,2 km/h (5 Bft) 97,87 %
24.09.2020 14:08 19,4 C 23,3 C 18,3 C 53 % 1003,9 hPa 0,0 l/m 2 min 0 min 646 W/m 29,0 km/h (5 Bft) 97,87 %
24.09.2020 14:10 19,5 C 23,3 C 18,3 C 53 % 1003,7 hPa 0,0 l/m 2 min 0 min 685 W/m 29,0 km/h (5 Bft) 100,00 %
24.09.2020 14:12 19,5 C 23,3 C 18,3 C 54 % 1003,7 hPa 0,0 l/m 2 min 0 min 534 W/m 22,5 km/h (4 Bft) 100,00 %
24.09.2020 14:14 19,6 C 22,8 C 18,3 C 54 % 1003,7 hPa 0,0 l/m 2 min 0 min 522 W/m 19,3 km/h (3 Bft) 97,83 %
24.09.2020 14:16 19,6 C 22,2 C 18,3 C 52 % 1003,7 hPa 0,0 l/m 2 min 0 min 603 W/m 38,6 km/h (5 Bft) 97,87 %
24.09.2020 14:18 19,6 C 21,7 C 17,8 C 51 % 1003,8 hPa 0,0 l/m 2 min 0 min 685 W/m 45,1 km/h (6 Bft) 100,00 %
24.09.2020 14:20 19,6 C 20,6 C 17,8 C 52 % 1003,7 hPa 0,0 l/m 2 min 0 min 539 W/m 35,4 km/h (5 Bft) 100,00 %
24.09.2020 14:22 19,5 C 20,6 C 17,8 C 52 % 1003,8 hPa 0,0 l/m 2 min 0 min 447 W/m 41,8 km/h (6 Bft) 95,74 %
24.09.2020 14:24 19,4 C 21,1 C 17,8 C 52 % 1003,9 hPa 0,0 l/m 2 min 0 min 536 W/m 35,4 km/h (5 Bft) 100,00 %
24.09.2020 14:26 19,4 C 21,7 C 17,8 C 52 % 1003,6 hPa 0,0 l/m 2 min 0 min 587 W/m 25,7 km/h (4 Bft) 95,65 %
24.09.2020 14:28 19,4 C 21,1 C 17,8 C 52 % 1003,8 hPa 0,0 l/m 2 min 0 min 587 W/m 35,4 km/h (5 Bft) 97,87 %
24.09.2020 14:30 19,4 C 22,2 C 17,8 C 52 % 1003,7 hPa 0,0 l/m 2 min 0 min 648 W/m 22,5 km/h (4 Bft) 100,00 %
24.09.2020 14:32 19,4 C 22,8 C 18,3 C 52 % 1003,8 hPa 0,0 l/m 2 min 0 min 718 W/m 35,4 km/h (5 Bft) 95,65 %
24.09.2020 14:34 19,5 C 23,9 C 18,3 C 53 % 1003,7 hPa 0,0 l/m 2 min 0 min 722 W/m 25,7 km/h (4 Bft) 97,83 %
24.09.2020 14:36 19,6 C 23,3 C 18,3 C 53 % 1003,7 hPa 0,0 l/m 2 min 0 min 716 W/m 35,4 km/h (5 Bft) 97,87 %
24.09.2020 14:38 19,6 C 23,9 C 18,3 C 54 % 1003,6 hPa 0,0 l/m 2 min 0 min 717 W/m 19,3 km/h (3 Bft) 95,74 %
24.09.2020 14:40 19,7 C 23,9 C 18,9 C 53 % 1003,7 hPa 0,0 l/m 2 min 0 min 701 W/m 35,4 km/h (5 Bft) 97,87 %
24.09.2020 14:42 19,8 C 23,9 C 18,3 C 53 % 1003,5 hPa 0,0 l/m 2 min 0 min 704 W/m 32,2 km/h (5 Bft) 97,87 %
24.09.2020 14:44 19,8 C 22,8 C 18,3 C 52 % 1003,5 hPa 0,0 l/m 2 min 0 min 720 W/m 38,6 km/h (5 Bft) 97,87 %
24.09.2020 14:46 19,9 C 21,7 C 18,3 C 52 % 1003,5 hPa 0,0 l/m 2 min 0 min 728 W/m 29,0 km/h (5 Bft) 97,83 %
24.09.2020 14:48 19,9 C 21,7 C 17,8 C 52 % 1003,5 hPa 0,0 l/m 2 min 0 min 698 W/m 38,6 km/h (5 Bft) 97,87 %
24.09.2020 14:50 19,8 C 22,8 C 18,3 C 52 % 1003,4 hPa 0,0 l/m 2 min 0 min 660 W/m 25,7 km/h (4 Bft) 97,87 %
24.09.2020 14:52 19,9 C 23,3 C 18,3 C 53 % 1003,4 hPa 0,0 l/m 2 min 0 min 617 W/m 22,5 km/h (4 Bft) 95,74 %
24.09.2020 14:54 19,9 C 23,9 C 18,3 C 53 % 1003,4 hPa 0,0 l/m 2 min 0 min 634 W/m 25,7 km/h (4 Bft) 95,74 %
24.09.2020 14:56 19,9 C 23,9 C 18,3 C 52 % 1003,5 hPa 0,0 l/m 2 min 0 min 646 W/m 25,7 km/h (4 Bft) 97,87 %
24.09.2020 14:58 20,1 C 23,9 C 18,9 C 53 % 1003,4 hPa 0,0 l/m 2 min 0 min 647 W/m 22,5 km/h (4 Bft) 95,65 %
24.09.2020 15:00 20,1 C 23,3 C 18,3 C 52 % 1003,4 hPa 0,0 l/m 2 min 0 min 619 W/m 25,7 km/h (4 Bft) 97,87 %
24.09.2020 15:02 20,1 C 23,3 C 18,3 C 53 % 1003,3 hPa 0,0 l/m 2 min 0 min 621 W/m 25,7 km/h (4 Bft) 97,87 %
24.09.2020 15:04 20,1 C 23,9 C 18,9 C 53 % 1003,3 hPa 0,0 l/m 2 min 0 min 639 W/m 19,3 km/h (3 Bft) 95,74 %
24.09.2020 15:06 20,2 C 23,3 C 18,9 C 53 % 1003,3 hPa 0,0 l/m 2 min 0 min 640 W/m 25,7 km/h (4 Bft) 97,87 %
24.09.2020 15:08 20,2 C 23,9 C 18,9 C 52 % 1003,3 hPa 0,0 l/m 2 min 0 min 630 W/m 29,0 km/h (5 Bft) 97,87 %
24.09.2020 15:10 20,3 C 24,4 C 18,9 C 53 % 1003,3 hPa 0,0 l/m 2 min 0 min 620 W/m 25,7 km/h (4 Bft) 97,83 %
24.09.2020 15:12 20,3 C 23,3 C 18,9 C 52 % 1003,3 hPa 0,0 l/m 2 min 0 min 608 W/m 48,3 km/h (6 Bft) 97,87 %
24.09.2020 15:14 20,3 C 22,8 C 18,3 C 52 % 1003,2 hPa 0,0 l/m 2 min 0 min 576 W/m 29,0 km/h (5 Bft) 93,62 %
24.09.2020 15:16 20,3 C 22,8 C 18,3 C 52 % 1003,3 hPa 0,0 l/m 2 min 0 min 571 W/m 35,4 km/h (5 Bft) 95,74 %
24.09.2020 15:18 20,3 C 23,3 C 18,3 C 52 % 1003,1 hPa 0,0 l/m 2 min 0 min 614 W/m 25,7 km/h (4 Bft) 95,74 %
24.09.2020 15:20 20,3 C 22,8 C 18,3 C 52 % 1003,1 hPa 0,0 l/m 2 min 0 min 582 W/m 29,0 km/h (5 Bft) 95,74 %
24.09.2020 15:22 20,3 C 22,8 C 18,3 C 52 % 1003,1 hPa 0,0 l/m 2 min 0 min 568 W/m 25,7 km/h (4 Bft) 95,65 %
24.09.2020 15:24 20,3 C 23,3 C 18,3 C 52 % 1003,0 hPa 0,0 l/m 2 min 0 min 566 W/m 22,5 km/h (4 Bft) 95,74 %
24.09.2020 15:26 20,3 C 22,8 C 18,3 C 52 % 1003,1 hPa 0,0 l/m 2 min 0 min 548 W/m 29,0 km/h (5 Bft) 91,49 %
24.09.2020 15:28 20,2 C 22,8 C 18,3 C 51 % 1003,0 hPa 0,0 l/m 2 min 0 min 524 W/m 22,5 km/h (4 Bft) 93,62 %
24.09.2020 15:30 20,2 C 22,8 C 18,3 C 51 % 1003,0 hPa 0,0 l/m 2 min 0 min 488 W/m 25,7 km/h (4 Bft) 93,62 %
24.09.2020 15:32 20,2 C 22,2 C 18,3 C 51 % 1003,0 hPa 0,0 l/m 2 min 0 min 497 W/m 32,2 km/h (5 Bft) 93,48 %
24.09.2020 15:34 20,1 C 22,2 C 18,3 C 51 % 1003,0 hPa 0,0 l/m 2 min 0 min 475 W/m 41,8 km/h (6 Bft) 93,62 %
24.09.2020 15:36 20,1 C 21,7 C 18,3 C 52 % 1002,9 hPa 0,0 l/m 2 min 0 min 451 W/m 25,7 km/h (4 Bft) 95,74 %
24.09.2020 15:38 20,1 C 21,1 C 18,3 C 51 % 1003,0 hPa 0,0 l/m 2 min 0 min 370 W/m 35,4 km/h (5 Bft) 95,74 %
24.09.2020 15:40 20,0 C 21,1 C 18,3 C 51 % 1002,9 hPa 0,0 l/m 2 min 0 min 365 W/m 22,5 km/h (4 Bft) 95,74 %
24.09.2020 15:42 19,9 C 21,1 C 18,3 C 51 % 1002,9 hPa 0,0 l/m 2 min 0 min 437 W/m 25,7 km/h (4 Bft) 95,74 %
24.09.2020 15:44 19,9 C 21,7 C 18,3 C 52 % 1002,9 hPa 0,0 l/m 2 min 0 min 489 W/m 19,3 km/h (3 Bft) 95,74 %
24.09.2020 15:46 19,9 C 22,2 C 18,3 C 52 % 1002,8 hPa 0,0 l/m 2 min 0 min 453 W/m 19,3 km/h (3 Bft) 95,65 %
24.09.2020 15:48 19,9 C 21,1 C 18,3 C 53 % 1002,9 hPa 0,0 l/m 2 min 0 min 372 W/m 32,2 km/h (5 Bft) 93,62 %
24.09.2020 15:50 19,9 C 21,1 C 18,3 C 52 % 1002,8 hPa 0,0 l/m 2 min 0 min 414 W/m 25,7 km/h (4 Bft) 93,62 %
24.09.2020 15:52 19,8 C 21,1 C 18,3 C 51 % 1002,8 hPa 0,0 l/m 2 min 0 min 420 W/m 25,7 km/h (4 Bft) 95,74 %
24.09.2020 15:54 19,8 C 21,7 C 18,3 C 52 % 1002,8 hPa 0,0 l/m 2 min 0 min 352 W/m 22,5 km/h (4 Bft) 91,49 %
24.09.2020 15:56 19,8 C 20,6 C 18,3 C 52 % 1002,7 hPa 0,0 l/m 2 min 0 min 301 W/m 22,5 km/h (4 Bft) 95,65 %
24.09.2020 15:58 19,8 C 20,0 C 17,8 C 52 % 1002,7 hPa 0,0 l/m 2 min 0 min 290 W/m 25,7 km/h (4 Bft) 94,00 %
24.09.2020 16:00 19,7 C 20,0 C 17,8 C 52 % 1002,7 hPa 0,0 l/m 2 min 0 min 268 W/m 25,7 km/h (4 Bft) 95,74 %
24.09.2020 16:02 19,7 C 20,0 C 17,8 C 52 % 1002,6 hPa 0,0 l/m 2 min 0 min 280 W/m 29,0 km/h (5 Bft) 93,62 %
24.09.2020 16:04 19,6 C 20,0 C 17,8 C 52 % 1002,5 hPa 0,0 l/m 2 min 0 min 298 W/m 19,3 km/h (3 Bft) 95,74 %
24.09.2020 16:06 19,6 C 19,4 C 17,8 C 53 % 1002,6 hPa 0,0 l/m 2 min 0 min 285 W/m 45,1 km/h (6 Bft) 97,83 %
24.09.2020 16:08 19,6 C 19,4 C 17,8 C 52 % 1002,6 hPa 0,0 l/m 2 min 0 min 269 W/m 25,7 km/h (4 Bft) 97,87 %
24.09.2020 16:10 19,5 C 19,4 C 17,8 C 52 % 1002,4 hPa 0,0 l/m 2 min 0 min 267 W/m 35,4 km/h (5 Bft) 100,00 %
24.09.2020 16:12 19,4 C 19,4 C 17,8 C 53 % 1002,5 hPa 0,0 l/m 2 min 0 min 260 W/m 25,7 km/h (4 Bft) 97,87 %
24.09.2020 16:14 19,4 C 19,4 C 18,3 C 53 % 1002,5 hPa 0,0 l/m 2 min 0 min 273 W/m 25,7 km/h (4 Bft) 97,87 %
24.09.2020 16:16 19,3 C 20,0 C 18,3 C 53 % 1002,4 hPa 0,0 l/m 2 min 0 min 266 W/m 19,3 km/h (3 Bft) 97,87 %
24.09.2020 16:18 19,3 C 20,6 C 18,9 C 54 % 1002,4 hPa 0,0 l/m 2 min 0 min 277 W/m 12,9 km/h (3 Bft) 100,00 %
24.09.2020 16:20 19,3 C 20,0 C 18,9 C 54 % 1002,4 hPa 0,0 l/m 2 min 0 min 278 W/m 25,7 km/h (4 Bft) 100,00 %
24.09.2020 16:22 19,3 C 20,0 C 18,9 C 53 % 1002,4 hPa 0,0 l/m 2 min 0 min 303 W/m 22,5 km/h (4 Bft) 100,00 %
24.09.2020 16:24 19,3 C 20,0 C 18,9 C 53 % 1002,3 hPa 0,0 l/m 2 min 0 min 273 W/m 22,5 km/h (4 Bft) 100,00 %
24.09.2020 16:26 19,3 C 19,4 C 18,9 C 54 % 1002,4 hPa 0,0 l/m 2 min 0 min 255 W/m 22,5 km/h (4 Bft) 100,00 %
24.09.2020 16:28 19,3 C 20,0 C 18,9 C 54 % 1002,3 hPa 0,0 l/m 2 min 0 min 272 W/m 19,3 km/h (3 Bft) 97,87 %
24.09.2020 16:30 19,3 C 20,0 C 18,9 C 54 % 1002,3 hPa 0,0 l/m 2 min 0 min 299 W/m 22,5 km/h (4 Bft) 100,00 %
24.09.2020 16:32 19,3 C 20,6 C 18,9 C 54 % 1002,3 hPa 0,0 l/m 2 min 0 min 309 W/m 12,9 km/h (3 Bft) 100,00 %
24.09.2020 16:34 19,3 C 21,1 C 18,9 C 55 % 1002,3 hPa 0,0 l/m 2 min 0 min 339 W/m 12,9 km/h (3 Bft) 100,00 %
24.09.2020 16:36 19,3 C 21,1 C 18,9 C 55 % 1002,2 hPa 0,0 l/m 2 min 0 min 277 W/m 12,9 km/h (3 Bft) 100,00 %
24.09.2020 16:38 19,3 C 20,6 C 18,9 C 55 % 1002,2 hPa 0,0 l/m 2 min 0 min 226 W/m 16,1 km/h (3 Bft) 100,00 %
24.09.2020 16:40 19,3 C 20,0 C 18,3 C 54 % 1002,2 hPa 0,0 l/m 2 min 0 min 201 W/m 22,5 km/h (4 Bft) 100,00 %
24.09.2020 16:42 19,4 C 19,4 C 18,3 C 54 % 1002,2 hPa 0,0 l/m 0 min 0 min 174 W/m 16,1 km/h (3 Bft) 100,00 %
24.09.2020 16:44 19,3 C 19,4 C 18,3 C 53 % 1002,2 hPa 0,0 l/m 0 min 0 min 162 W/m 25,7 km/h (4 Bft) 100,00 %
24.09.2020 16:46 19,3 C 18,9 C 17,8 C 54 % 1002,1 hPa 0,0 l/m 0 min 0 min 163 W/m 16,1 km/h (3 Bft) 100,00 %
24.09.2020 16:48 19,3 C 19,4 C 17,8 C 54 % 1002,1 hPa 0,0 l/m 0 min 0 min 164 W/m 12,9 km/h (3 Bft) 100,00 %
24.09.2020 16:50 19,3 C 19,4 C 17,8 C 54 % 1002,0 hPa 0,0 l/m 0 min 0 min 168 W/m 3,2 km/h (1 Bft) 100,00 %
24.09.2020 16:52 19,3 C 18,9 C 17,8 C 53 % 1002,0 hPa 0,0 l/m 0 min 0 min 163 W/m 12,9 km/h (3 Bft) 100,00 %
24.09.2020 16:54 19,3 C 19,4 C 17,8 C 54 % 1002,0 hPa 0,0 l/m 0 min 0 min 166 W/m 12,9 km/h (3 Bft) 100,00 %
24.09.2020 16:56 19,3 C 19,4 C 17,8 C 54 % 1001,9 hPa 0,0 l/m 0 min 0 min 171 W/m 19,3 km/h (3 Bft) 100,00 %
24.09.2020 16:58 19,3 C 18,9 C 17,8 C 54 % 1001,9 hPa 0,0 l/m 0 min 0 min 162 W/m 16,1 km/h (3 Bft) 97,87 %
24.09.2020 17:00 19,3 C 18,9 C 17,8 C 54 % 1001,9 hPa 0,0 l/m 0 min 0 min 170 W/m 19,3 km/h (3 Bft) 100,00 %
24.09.2020 17:02 19,3 C 18,9 C 17,8 C 53 % 1001,9 hPa 0,0 l/m 0 min 0 min 164 W/m 19,3 km/h (3 Bft) 100,00 %
24.09.2020 17:04 19,3 C 18,9 C 17,8 C 53 % 1001,8 hPa 0,0 l/m 0 min 0 min 165 W/m 16,1 km/h (3 Bft) 100,00 %
24.09.2020 17:06 19,2 C 19,4 C 17,8 C 53 % 1001,8 hPa 0,0 l/m 2 min 0 min 189 W/m 16,1 km/h (3 Bft) 100,00 %
24.09.2020 17:08 19,2 C 19,4 C 17,8 C 54 % 1001,7 hPa 0,0 l/m 2 min 0 min 218 W/m 16,1 km/h (3 Bft) 100,00 %
24.09.2020 17:10 19,2 C 20,0 C 17,8 C 54 % 1001,7 hPa 0,0 l/m 2 min 0 min 223 W/m 12,9 km/h (3 Bft) 100,00 %
24.09.2020 17:12 19,2 C 20,0 C 17,8 C 53 % 1001,7 hPa 0,0 l/m 2 min 0 min 231 W/m 19,3 km/h (3 Bft) 97,87 %
24.09.2020 17:14 19,2 C 20,0 C 17,8 C 54 % 1001,7 hPa 0,0 l/m 2 min 0 min 219 W/m 16,1 km/h (3 Bft) 100,00 %
24.09.2020 17:16 19,3 C 20,0 C 17,8 C 54 % 1001,7 hPa 0,0 l/m 2 min 0 min 209 W/m 12,9 km/h (3 Bft) 100,00 %
24.09.2020 17:18 19,3 C 19,4 C 17,8 C 54 % 1001,6 hPa 0,0 l/m 2 min 0 min 167 W/m 16,1 km/h (3 Bft) 100,00 %
24.09.2020 17:20 19,3 C 19,4 C 17,8 C 53 % 1001,6 hPa 0,0 l/m 0 min 0 min 149 W/m 12,9 km/h (3 Bft) 100,00 %
24.09.2020 17:22 19,3 C 19,4 C 17,8 C 54 % 1001,6 hPa 0,0 l/m 0 min 0 min 148 W/m 12,9 km/h (3 Bft) 100,00 %
24.09.2020 17:24 19,3 C 19,4 C 17,8 C 54 % 1001,6 hPa 0,0 l/m 2 min 0 min 161 W/m 0,0 km/h (0 Bft) 100,00 %
24.09.2020 17:26 19,3 C 19,4 C 17,8 C 54 % 1001,6 hPa 0,0 l/m 2 min 0 min 150 W/m 12,9 km/h (3 Bft) 100,00 %
24.09.2020 17:28 19,3 C 19,4 C 17,2 C 54 % 1001,6 hPa 0,0 l/m 0 min 0 min 129 W/m 12,9 km/h (3 Bft) 100,00 %
24.09.2020 17:30 19,3 C 18,9 C 17,2 C 54 % 1001,6 hPa 0,0 l/m 0 min 0 min 133 W/m 12,9 km/h (3 Bft) 100,00 %
24.09.2020 17:32 19,3 C 18,9 C 17,2 C 54 % 1001,5 hPa 0,0 l/m 0 min 0 min 138 W/m 12,9 km/h (3 Bft) 100,00 %
24.09.2020 17:34 19,3 C 18,9 C 17,2 C 54 % 1001,4 hPa 0,0 l/m 0 min 0 min 133 W/m 16,1 km/h (3 Bft) 100,00 %
24.09.2020 17:36 19,3 C 18,9 C 17,2 C 54 % 1001,5 hPa 0,0 l/m 2 min 0 min 143 W/m 12,9 km/h (3 Bft) 100,00 %
24.09.2020 17:38 19,3 C 18,9 C 17,2 C 54 % 1001,4 hPa 0,0 l/m 2 min 0 min 149 W/m 6,4 km/h (2 Bft) 97,87 %
24.09.2020 17:40 19,3 C 19,4 C 17,2 C 54 % 1001,4 hPa 0,0 l/m 2 min 0 min 135 W/m 12,9 km/h (3 Bft) 97,83 %
24.09.2020 17:42 19,3 C 18,9 C 17,2 C 55 % 1001,4 hPa 0,0 l/m 0 min 0 min 128 W/m 12,9 km/h (3 Bft) 97,87 %
24.09.2020 17:44 19,3 C 18,9 C 17,2 C 54 % 1001,3 hPa 0,0 l/m 0 min 0 min 124 W/m 16,1 km/h (3 Bft) 100,00 %
24.09.2020 17:46 19,3 C 18,9 C 17,2 C 54 % 1001,3 hPa 0,0 l/m 0 min 0 min 116 W/m 12,9 km/h (3 Bft) 100,00 %
24.09.2020 17:48 19,3 C 18,9 C 17,2 C 55 % 1001,3 hPa 0,0 l/m 0 min 0 min 110 W/m 3,2 km/h (1 Bft) 95,74 %
24.09.2020 17:50 19,3 C 18,9 C 17,2 C 55 % 1001,3 hPa 0,0 l/m 0 min 0 min 100 W/m 3,2 km/h (1 Bft) 97,87 %
24.09.2020 17:52 19,3 C 18,9 C 17,2 C 55 % 1001,2 hPa 0,0 l/m 0 min 0 min 92 W/m 0,0 km/h (0 Bft) 100,00 %
24.09.2020 17:54 19,3 C 18,3 C 17,2 C 55 % 1001,2 hPa 0,0 l/m 0 min 0 min 83 W/m 0,0 km/h (0 Bft) 100,00 %
24.09.2020 17:56 19,3 C 18,3 C 17,2 C 55 % 1001,2 hPa 0,0 l/m 0 min 0 min 78 W/m 0,0 km/h (0 Bft) 95,74 %
24.09.2020 17:58 19,2 C 18,3 C 16,7 C 55 % 1001,1 hPa 0,0 l/m 0 min 0 min 77 W/m 0,0 km/h (0 Bft) 95,74 %
24.09.2020 18:00 19,2 C 18,3 C 16,7 C 55 % 1001,1 hPa 0,0 l/m 0 min 0 min 77 W/m 6,4 km/h (2 Bft) 93,62 %
24.09.2020 18:02 19,2 C 18,3 C 17,2 C 55 % 1001,0 hPa 0,0 l/m 0 min 0 min 77 W/m 0,0 km/h (0 Bft) 93,75 %
24.09.2020 18:04 19,2 C 18,3 C 17,2 C 55 % 1001,0 hPa 0,0 l/m 0 min 0 min 77 W/m 0,0 km/h (0 Bft) 93,48 %
24.09.2020 18:08 19,2 C 18,3 C 16,7 C 55 % 1000,9 hPa 0,0 l/m 0 min 0 min 78 W/m 0,0 km/h (0 Bft) 93,68 %
24.09.2020 18:10 19,2 C 18,3 C 16,7 C 56 % 1000,9 hPa 0,0 l/m 0 min 0 min 74 W/m 3,2 km/h (1 Bft) 93,62 %
24.09.2020 18:12 19,2 C 18,3 C 16,7 C 55 % 1000,9 hPa 0,0 l/m 0 min 0 min 74 W/m 12,9 km/h (3 Bft) 93,62 %
24.09.2020 18:14 19,1 C 18,3 C 16,7 C 56 % 1000,8 hPa 0,0 l/m 0 min 0 min 74 W/m 0,0 km/h (0 Bft) 93,62 %
24.09.2020 18:16 19,1 C 18,3 C 16,7 C 55 % 1000,8 hPa 0,0 l/m 0 min 0 min 72 W/m 0,0 km/h (0 Bft) 91,49 %
24.09.2020 18:18 19,1 C 18,3 C 16,7 C 56 % 1000,7 hPa 0,0 l/m 0 min 0 min 68 W/m 0,0 km/h (0 Bft) 89,13 %
24.09.2020 18:20 19,1 C 18,3 C 16,7 C 55 % 1000,7 hPa 0,0 l/m 0 min 0 min 67 W/m 6,4 km/h (2 Bft) 91,49 %
24.09.2020 18:22 19,1 C 18,3 C 16,7 C 55 % 1000,7 hPa 0,0 l/m 0 min 0 min 65 W/m 12,9 km/h (3 Bft) 93,62 %
24.09.2020 18:24 19,1 C 18,3 C 16,7 C 55 % 1000,6 hPa 0,0 l/m 0 min 0 min 64 W/m 6,4 km/h (2 Bft) 93,62 %
24.09.2020 18:26 19,0 C 17,8 C 16,7 C 55 % 1000,6 hPa 0,0 l/m 0 min 0 min 62 W/m 6,4 km/h (2 Bft) 93,62 %
24.09.2020 18:28 19,0 C 17,8 C 16,7 C 55 % 1000,6 hPa 0,0 l/m 0 min 0 min 56 W/m 6,4 km/h (2 Bft) 89,36 %
24.09.2020 18:30 19,0 C 17,8 C 16,7 C 55 % 1000,6 hPa 0,0 l/m 0 min 0 min 49 W/m 6,4 km/h (2 Bft) 95,65 %
24.09.2020 18:32 18,9 C 17,8 C 16,7 C 55 % 1000,6 hPa 0,0 l/m 0 min 0 min 44 W/m 6,4 km/h (2 Bft) 93,62 %
24.09.2020 18:34 18,9 C 17,8 C 16,7 C 55 % 1000,6 hPa 0,0 l/m 0 min 0 min 41 W/m 3,2 km/h (1 Bft) 91,49 %
24.09.2020 18:36 18,9 C 17,8 C 16,7 C 55 % 1000,6 hPa 0,0 l/m 0 min 0 min 38 W/m 9,7 km/h (2 Bft) 93,62 %
24.09.2020 18:38 18,9 C 17,8 C 16,7 C 55 % 1000,5 hPa 0,0 l/m 0 min 0 min 35 W/m 16,1 km/h (3 Bft) 93,48 %
24.09.2020 18:40 18,9 C 17,8 C 16,7 C 55 % 1000,5 hPa 0,0 l/m 0 min 0 min 34 W/m 0,0 km/h (0 Bft) 91,49 %
24.09.2020 18:42 18,8 C 17,2 C 16,7 C 55 % 1000,5 hPa 0,0 l/m 0 min 0 min 33 W/m 12,9 km/h (3 Bft) 93,62 %
24.09.2020 18:44 18,8 C 17,2 C 16,7 C 54 % 1000,5 hPa 0,0 l/m 0 min 0 min 32 W/m 6,4 km/h (2 Bft) 95,74 %
24.09.2020 18:46 18,8 C 17,2 C 16,7 C 54 % 1000,5 hPa 0,0 l/m 0 min 0 min 30 W/m 12,9 km/h (3 Bft) 95,74 %
24.09.2020 18:48 18,7 C 17,2 C 16,7 C 54 % 1000,5 hPa 0,0 l/m 0 min 0 min 27 W/m 0,0 km/h (0 Bft) 97,87 %
24.09.2020 18:50 18,7 C 17,2 C 16,7 C 54 % 1000,5 hPa 0,0 l/m 0 min 0 min 25 W/m 0,0 km/h (0 Bft) 95,65 %
24.09.2020 18:52 18,7 C 17,2 C 16,7 C 55 % 1000,5 hPa 0,0 l/m 0 min 0 min 22 W/m 12,9 km/h (3 Bft) 95,74 %
24.09.2020 18:54 18,6 C 17,2 C 16,7 C 55 % 1000,5 hPa 0,0 l/m 0 min 0 min 20 W/m 12,9 km/h (3 Bft) 97,87 %
24.09.2020 18:56 18,6 C 17,2 C 16,7 C 55 % 1000,5 hPa 0,0 l/m 0 min 0 min 18 W/m 12,9 km/h (3 Bft) 97,87 %
24.09.2020 18:58 18,6 C 17,2 C 16,7 C 55 % 1000,5 hPa 0,0 l/m 0 min 0 min 17 W/m 12,9 km/h (3 Bft) 95,74 %
24.09.2020 19:00 18,6 C 17,2 C 16,7 C 55 % 1000,5 hPa 0,0 l/m 0 min 0 min 15 W/m 6,4 km/h (2 Bft) 97,87 %
24.09.2020 19:02 18,6 C 17,2 C 16,1 C 55 % 1000,4 hPa 0,0 l/m 0 min 0 min 14 W/m 0,0 km/h (0 Bft) 97,87 %
24.09.2020 19:04 18,5 C 17,2 C 16,1 C 55 % 1000,3 hPa 0,0 l/m 0 min 0 min 12 W/m 0,0 km/h (0 Bft) 97,83 %
24.09.2020 19:06 18,4 C 17,2 C 16,1 C 56 % 1000,3 hPa 0,0 l/m 0 min 0 min 11 W/m 3,2 km/h (1 Bft) 97,87 %
24.09.2020 19:08 18,4 C 17,2 C 16,1 C 56 % 1000,3 hPa 0,0 l/m 0 min 0 min 11 W/m 0,0 km/h (0 Bft) 97,87 %
24.09.2020 19:10 18,4 C 16,7 C 16,1 C 56 % 1000,3 hPa 0,0 l/m 0 min 0 min 9 W/m 0,0 km/h (0 Bft) 100,00 %
24.09.2020 19:12 18,4 C 16,7 C 16,1 C 56 % 1000,2 hPa 0,0 l/m 0 min 0 min 11 W/m 3,2 km/h (1 Bft) 100,00 %
24.09.2020 19:14 18,4 C 16,7 C 16,1 C 56 % 1000,2 hPa 0,0 l/m 0 min 0 min 10 W/m 12,9 km/h (3 Bft) 100,00 %
24.09.2020 19:16 18,3 C 16,7 C 16,1 C 56 % 1000,2 hPa 0,0 l/m 0 min 0 min 8 W/m 12,9 km/h (3 Bft) 100,00 %
24.09.2020 19:18 18,3 C 16,7 C 16,1 C 56 % 1000,1 hPa 0,0 l/m 0 min 0 min 7 W/m 12,9 km/h (3 Bft) 97,87 %
24.09.2020 19:20 18,3 C 16,7 C 16,1 C 57 % 1000,1 hPa 0,0 l/m 0 min 0 min 6 W/m 0,0 km/h (0 Bft) 100,00 %
24.09.2020 19:22 18,2 C 16,7 C 16,1 C 57 % 1000,1 hPa 0,0 l/m 0 min 0 min 5 W/m 0,0 km/h (0 Bft) 100,00 %
24.09.2020 19:24 18,2 C 16,7 C 16,1 C 57 % 1000,0 hPa 0,0 l/m 0 min 0 min 5 W/m 12,9 km/h (3 Bft) 100,00 %
24.09.2020 19:26 18,2 C 16,7 C 16,1 C 57 % 1000,0 hPa 0,0 l/m 0 min 0 min 1 W/m 3,2 km/h (1 Bft) 100,00 %
24.09.2020 19:28 18,2 C 16,7 C 16,1 C 57 % 1000,0 hPa 0,0 l/m 0 min 0 min 0 W/m 3,2 km/h (1 Bft) 97,83 %
24.09.2020 19:30 18,1 C 16,7 C 16,1 C 57 % 999,9 hPa 0,0 l/m 0 min 0 min 0 W/m 0,0 km/h (0 Bft) 100,00 %
24.09.2020 19:32 18,1 C 16,7 C 16,1 C 57 % 999,9 hPa 0,0 l/m 0 min 0 min 0 W/m 12,9 km/h (3 Bft) 100,00 %
24.09.2020 19:34 18,1 C 16,7 C 16,1 C 57 % 999,9 hPa 0,0 l/m 0 min 0 min 0 W/m 9,7 km/h (2 Bft) 100,00 %
24.09.2020 19:36 18,1 C 16,7 C 16,1 C 57 % 999,8 hPa 0,0 l/m 0 min 0 min 0 W/m 12,9 km/h (3 Bft) 100,00 %
24.09.2020 19:38 18,1 C 16,7 C 16,1 C 57 % 999,8 hPa 0,0 l/m 0 min 0 min 0 W/m 16,1 km/h (3 Bft) 100,00 %
24.09.2020 19:40 18,0 C 16,7 C 16,1 C 57 % 999,8 hPa 0,0 l/m 0 min 0 min 0 W/m 12,9 km/h (3 Bft) 100,00 %
24.09.2020 19:42 18,0 C 16,7 C 16,1 C 57 % 999,7 hPa 0,0 l/m 0 min 0 min 0 W/m 12,9 km/h (3 Bft) 100,00 %
24.09.2020 19:44 18,0 C 16,7 C 16,1 C 58 % 999,6 hPa 0,0 l/m 0 min 0 min 0 W/m 0,0 km/h (0 Bft) 100,00 %
24.09.2020 19:46 18,0 C 16,7 C 16,1 C 58 % 999,6 hPa 0,0 l/m 0 min 0 min 0 W/m 0,0 km/h (0 Bft) 100,00 %
24.09.2020 19:48 17,9 C 16,7 C 16,1 C 58 % 999,6 hPa 0,0 l/m 0 min 0 min 0 W/m 0,0 km/h (0 Bft) 100,00 %
24.09.2020 19:50 17,9 C 16,7 C 16,1 C 58 % 999,5 hPa 0,0 l/m 0 min 0 min 0 W/m 0,0 km/h (0 Bft) 100,00 %
24.09.2020 19:52 17,9 C 16,7 C 16,1 C 58 % 999,5 hPa 0,0 l/m 0 min 0 min 0 W/m 0,0 km/h (0 Bft) 97,83 %
24.09.2020 19:54 17,9 C 16,7 C 16,1 C 58 % 999,5 hPa 0,0 l/m 0 min 0 min 0 W/m 0,0 km/h (0 Bft) 100,00 %
24.09.2020 19:56 17,9 C 16,7 C 16,1 C 58 % 999,5 hPa 0,0 l/m 0 min 0 min 0 W/m 0,0 km/h (0 Bft) 100,00 %
24.09.2020 19:58 17,9 C 16,7 C 15,6 C 59 % 999,4 hPa 0,0 l/m 0 min 0 min 0 W/m 0,0 km/h (0 Bft) 100,00 %
24.09.2020 20:00 17,9 C 16,1 C 15,6 C 59 % 999,4 hPa 0,0 l/m 0 min 0 min 0 W/m 0,0 km/h (0 Bft) 100,00 %
24.09.2020 20:02 17,9 C 16,7 C 15,6 C 59 % 999,3 hPa 0,0 l/m 0 min 0 min 0 W/m 0,0 km/h (0 Bft) 97,83 %
24.09.2020 20:04 17,8 C 16,7 C 15,6 C 59 % 999,3 hPa 0,0 l/m 0 min 0 min 0 W/m 3,2 km/h (1 Bft) 100,00 %
24.09.2020 20:06 17,8 C 16,7 C 15,6 C 59 % 999,3 hPa 0,0 l/m 0 min 0 min 0 W/m 6,4 km/h (2 Bft) 97,87 %
24.09.2020 20:08 17,8 C 16,7 C 15,6 C 59 % 999,3 hPa 0,0 l/m 0 min 0 min 0 W/m 0,0 km/h (0 Bft) 97,87 %
24.09.2020 20:10 17,8 C 16,1 C 15,6 C 59 % 999,2 hPa 0,0 l/m 0 min 0 min 0 W/m 3,2 km/h (1 Bft) 100,00 %
24.09.2020 20:12 17,7 C 16,1 C 15,6 C 60 % 999,2 hPa 0,0 l/m 0 min 0 min 0 W/m 0,0 km/h (0 Bft) 100,00 %
24.09.2020 20:14 17,7 C 16,1 C 15,6 C 60 % 999,1 hPa 0,0 l/m 0 min 0 min 0 W/m 0,0 km/h (0 Bft) 100,00 %
24.09.2020 20:16 17,7 C 16,1 C 15,6 C 60 % 999,1 hPa 0,0 l/m 0 min 0 min 0 W/m 0,0 km/h (0 Bft) 100,00 %
24.09.2020 20:18 17,7 C 16,1 C 15,6 C 60 % 999,1 hPa 0,0 l/m 0 min 0 min 0 W/m 0,0 km/h (0 Bft) 100,00 %
24.09.2020 20:20 17,7 C 16,1 C 15,6 C 60 % 999,1 hPa 0,0 l/m 0 min 0 min 0 W/m 0,0 km/h (0 Bft) 100,00 %
24.09.2020 20:22 17,6 C 16,1 C 15,6 C 60 % 999,1 hPa 0,0 l/m 0 min 0 min 0 W/m 0,0 km/h (0 Bft) 100,00 %
24.09.2020 20:24 17,6 C 15,6 C 15,6 C 61 % 999,0 hPa 0,0 l/m 0 min 0 min 0 W/m 0,0 km/h (0 Bft) 97,87 %
24.09.2020 20:26 17,6 C 15,6 C 15,0 C 61 % 999,0 hPa 0,0 l/m 0 min 0 min 0 W/m 0,0 km/h (0 Bft) 100,00 %
24.09.2020 20:28 17,5 C 15,6 C 15,0 C 61 % 999,0 hPa 0,0 l/m 0 min 0 min 0 W/m 0,0 km/h (0 Bft) 95,74 %
24.09.2020 20:30 17,5 C 15,6 C 15,0 C 61 % 999,0 hPa 0,0 l/m 0 min 0 min 0 W/m 3,2 km/h (1 Bft) 100,00 %
24.09.2020 20:32 17,4 C 15,6 C 15,0 C 61 % 999,0 hPa 0,0 l/m 0 min 0 min 0 W/m 0,0 km/h (0 Bft) 97,87 %
24.09.2020 20:34 17,4 C 15,6 C 15,0 C 61 % 999,1 hPa 0,0 l/m 0 min 0 min 0 W/m 0,0 km/h (0 Bft) 95,74 %
24.09.2020 20:36 17,4 C 15,6 C 15,0 C 61 % 999,0 hPa 0,0 l/m 0 min 0 min 0 W/m 0,0 km/h (0 Bft) 100,00 %
24.09.2020 20:38 17,3 C 15,6 C 15,0 C 62 % 998,9 hPa 0,0 l/m 0 min 0 min 0 W/m 0,0 km/h (0 Bft) 100,00 %
24.09.2020 20:40 17,3 C 15,6 C 15,0 C 62 % 999,0 hPa 0,0 l/m 0 min 0 min 0 W/m 0,0 km/h (0 Bft) 100,00 %
24.09.2020 20:42 17,3 C 15,6 C 15,0 C 62 % 999,0 hPa 0,0 l/m 0 min 0 min 0 W/m 0,0 km/h (0 Bft) 97,87 %
24.09.2020 20:44 17,3 C 15,6 C 15,0 C 62 % 998,9 hPa 0,0 l/m 0 min 0 min 0 W/m 0,0 km/h (0 Bft) 95,74 %
24.09.2020 20:46 17,2 C 15,6 C 15,0 C 62 % 998,9 hPa 0,0 l/m 0 min 0 min 0 W/m 6,4 km/h (2 Bft) 93,48 %
24.09.2020 20:48 17,2 C 16,1 C 15,0 C 63 % 998,9 hPa 0,0 l/m 0 min 0 min 0 W/m 12,9 km/h (3 Bft) 95,74 %
24.09.2020 20:50 17,2 C 16,1 C 15,0 C 63 % 998,9 hPa 0,0 l/m 0 min 0 min 0 W/m 6,4 km/h (2 Bft) 93,62 %
24.09.2020 20:52 17,1 C 16,1 C 15,6 C 63 % 998,8 hPa 0,0 l/m 0 min 0 min 0 W/m 6,4 km/h (2 Bft) 95,74 %
24.09.2020 20:54 17,1 C 16,1 C 15,6 C 63 % 998,8 hPa 0,0 l/m 0 min 0 min 0 W/m 6,4 km/h (2 Bft) 93,62 %
24.09.2020 20:56 17,1 C 16,1 C 15,6 C 63 % 998,8 hPa 0,0 l/m 0 min 0 min 0 W/m 12,9 km/h (3 Bft) 95,74 %
24.09.2020 20:58 17,1 C 16,1 C 15,6 C 63 % 998,8 hPa 0,0 l/m 0 min 0 min 0 W/m 0,0 km/h (0 Bft) 95,65 %
24.09.2020 21:00 17,1 C 16,1 C 15,6 C 64 % 998,8 hPa 0,0 l/m 0 min 0 min 0 W/m 3,2 km/h (1 Bft) 95,74 %
24.09.2020 21:02 17,0 C 16,1 C 15,6 C 64 % 998,7 hPa 0,0 l/m 0 min 0 min 0 W/m 12,9 km/h (3 Bft) 95,83 %
24.09.2020 21:04 17,0 C 16,1 C 15,6 C 64 % 998,7 hPa 0,0 l/m 0 min 0 min 0 W/m 12,9 km/h (3 Bft) 95,74 %
24.09.2020 21:06 17,0 C 16,1 C 15,6 C 64 % 998,7 hPa 0,0 l/m 0 min 0 min 0 W/m 3,2 km/h (1 Bft) 93,62 %
24.09.2020 21:08 17,0 C 16,1 C 15,6 C 65 % 998,7 hPa 0,0 l/m 0 min 0 min 0 W/m 19,3 km/h (3 Bft) 95,74 %
24.09.2020 21:10 16,9 C 16,1 C 15,6 C 64 % 998,6 hPa 0,0 l/m 0 min 0 min 0 W/m 3,2 km/h (1 Bft) 95,65 %
24.09.2020 21:12 17,0 C 16,1 C 15,6 C 65 % 998,6 hPa 0,0 l/m 0 min 0 min 0 W/m 12,9 km/h (3 Bft) 89,36 %
24.09.2020 21:14 16,9 C 16,1 C 15,6 C 65 % 998,6 hPa 0,0 l/m 0 min 0 min 0 W/m 6,4 km/h (2 Bft) 95,74 %
24.09.2020 21:16 16,9 C 16,1 C 15,6 C 65 % 998,4 hPa 0,0 l/m 0 min 0 min 0 W/m 3,2 km/h (1 Bft) 95,74 %
24.09.2020 21:18 16,9 C 16,1 C 15,6 C 65 % 998,4 hPa 0,0 l/m 0 min 0 min 0 W/m 3,2 km/h (1 Bft) 95,83 %
24.09.2020 21:20 16,9 C 16,1 C 15,6 C 65 % 998,5 hPa 0,0 l/m 0 min 0 min 0 W/m 16,1 km/h (3 Bft) 95,74 %
24.09.2020 21:22 16,9 C 16,1 C 15,6 C 65 % 998,5 hPa 0,0 l/m 0 min 0 min 0 W/m 6,4 km/h (2 Bft) 95,65 %
24.09.2020 21:24 16,9 C 16,1 C 15,6 C 65 % 998,5 hPa 0,0 l/m 0 min 0 min 0 W/m 3,2 km/h (1 Bft) 95,74 %
24.09.2020 21:26 16,9 C 16,1 C 15,6 C 65 % 998,5 hPa 0,0 l/m 0 min 0 min 0 W/m 3,2 km/h (1 Bft) 95,74 %
24.09.2020 21:28 16,9 C 16,1 C 15,6 C 65 % 998,4 hPa 0,0 l/m 0 min 0 min 0 W/m 6,4 km/h (2 Bft) 91,49 %
24.09.2020 21:30 17,0 C 16,1 C 15,6 C 66 % 998,4 hPa 0,0 l/m 0 min 0 min 0 W/m 3,2 km/h (1 Bft) 93,62 %
24.09.2020 21:32 17,0 C 16,1 C 15,6 C 66 % 998,4 hPa 0,0 l/m 0 min 0 min 0 W/m 12,9 km/h (3 Bft) 100,00 %
24.09.2020 21:34 16,9 C 16,1 C 15,6 C 66 % 998,4 hPa 0,0 l/m 0 min 0 min 0 W/m 9,7 km/h (2 Bft) 100,00 %
24.09.2020 21:36 16,9 C 16,1 C 15,6 C 66 % 998,4 hPa 0,0 l/m 0 min 0 min 0 W/m 0,0 km/h (0 Bft) 100,00 %
24.09.2020 21:38 17,0 C 16,1 C 15,6 C 66 % 998,3 hPa 0,0 l/m 0 min 0 min 0 W/m 0,0 km/h (0 Bft) 100,00 %
24.09.2020 21:40 17,0 C 16,1 C 15,6 C 66 % 998,3 hPa 0,0 l/m 0 min 0 min 0 W/m 3,2 km/h (1 Bft) 97,87 %
24.09.2020 21:42 17,0 C 16,1 C 15,6 C 66 % 998,3 hPa 0,0 l/m 0 min 0 min 0 W/m 0,0 km/h (0 Bft) 100,00 %
24.09.2020 21:44 17,0 C 16,1 C 15,6 C 66 % 998,3 hPa 0,0 l/m 0 min 0 min 0 W/m 0,0 km/h (0 Bft) 97,87 %
24.09.2020 21:46 17,0 C 16,1 C 15,6 C 66 % 998,3 hPa 0,0 l/m 0 min 0 min 0 W/m 0,0 km/h (0 Bft) 97,87 %
24.09.2020 21:48 17,0 C 16,1 C 15,6 C 66 % 998,3 hPa 0,0 l/m 0 min 0 min 0 W/m 12,9 km/h (3 Bft) 95,65 %
24.09.2020 21:50 17,0 C 16,1 C 15,6 C 66 % 998,3 hPa 0,0 l/m 0 min 0 min 0 W/m 9,7 km/h (2 Bft) 97,87 %
24.09.2020 21:52 17,0 C 16,1 C 15,6 C 66 % 998,2 hPa 0,0 l/m 0 min 0 min 0 W/m 16,1 km/h (3 Bft) 97,87 %
24.09.2020 21:54 17,0 C 16,1 C 15,6 C 67 % 998,2 hPa 0,0 l/m 0 min 0 min 0 W/m 12,9 km/h (3 Bft) 97,87 %
24.09.2020 21:56 17,0 C 16,1 C 15,6 C 67 % 998,2 hPa 0,0 l/m 0 min 0 min 0 W/m 12,9 km/h (3 Bft) 97,87 %
24.09.2020 21:58 17,0 C 16,1 C 15,6 C 67 % 998,1 hPa 0,0 l/m 0 min 0 min 0 W/m 12,9 km/h (3 Bft) 97,83 %
24.09.2020 22:00 17,0 C 16,1 C 15,6 C 67 % 998,1 hPa 0,0 l/m 0 min 0 min 0 W/m 12,9 km/h (3 Bft) 97,87 %
24.09.2020 22:02 17,0 C 16,1 C 15,6 C 68 % 998,2 hPa 0,0 l/m 0 min 0 min 0 W/m 6,4 km/h (2 Bft) 95,74 %
24.09.2020 22:04 17,0 C 16,1 C 15,6 C 68 % 998,3 hPa 0,0 l/m 0 min 0 min 0 W/m 12,9 km/h (3 Bft) 97,87 %
24.09.2020 22:06 17,0 C 16,1 C 15,6 C 68 % 998,3 hPa 0,0 l/m 0 min 0 min 0 W/m 16,1 km/h (3 Bft) 95,74 %
24.09.2020 22:08 17,1 C 16,1 C 15,6 C 68 % 998,3 hPa 0,0 l/m 0 min 0 min 0 W/m 16,1 km/h (3 Bft) 95,74 %
24.09.2020 22:10 17,1 C 16,1 C 15,6 C 69 % 998,3 hPa 0,0 l/m 0 min 0 min 0 W/m 16,1 km/h (3 Bft) 97,83 %
24.09.2020 22:12 17,1 C 16,1 C 15,6 C 69 % 998,3 hPa 0,0 l/m 0 min 0 min 0 W/m 12,9 km/h (3 Bft) 97,87 %
24.09.2020 22:14 17,1 C 16,1 C 15,6 C 69 % 998,4 hPa 0,0 l/m 0 min 0 min 0 W/m 19,3 km/h (3 Bft) 97,87 %
24.09.2020 22:16 17,1 C 16,1 C 15,6 C 70 % 998,5 hPa 0,0 l/m 0 min 2 min 0 W/m 16,1 km/h (3 Bft) 97,87 %
24.09.2020 22:18 17,1 C 16,1 C 15,6 C 70 % 998,5 hPa 0,0 l/m 0 min 0 min 0 W/m 12,9 km/h (3 Bft) 97,87 %
24.09.2020 22:20 17,1 C 15,6 C 15,6 C 70 % 998,5 hPa 0,0 l/m 0 min 2 min 0 W/m 19,3 km/h (3 Bft) 97,87 %
24.09.2020 22:22 17,1 C 15,6 C 15,6 C 71 % 998,5 hPa 0,0 l/m 0 min 2 min 0 W/m 16,1 km/h (3 Bft) 95,65 %
24.09.2020 22:24 17,1 C 15,0 C 15,0 C 72 % 998,5 hPa 0,0 l/m 0 min 2 min 0 W/m 12,9 km/h (3 Bft) 97,87 %
24.09.2020 22:26 17,1 C 13,3 C 15,0 C 72 % 998,6 hPa 0,0 l/m 0 min 2 min 0 W/m 12,9 km/h (3 Bft) 97,87 %
24.09.2020 22:28 17,1 C 12,8 C 14,4 C 74 % 998,6 hPa 0,0 l/m 0 min 2 min 0 W/m 16,1 km/h (3 Bft) 97,87 %
24.09.2020 22:30 17,1 C 12,8 C 13,9 C 74 % 998,5 hPa 0,0 l/m 0 min 2 min 0 W/m 16,1 km/h (3 Bft) 97,87 %
24.09.2020 22:32 17,1 C 12,8 C 13,9 C 75 % 998,5 hPa 0,0 l/m 0 min 2 min 0 W/m 22,5 km/h (4 Bft) 95,74 %
24.09.2020 22:34 17,1 C 12,8 C 13,9 C 76 % 998,5 hPa 0,0 l/m 0 min 0 min 0 W/m 19,3 km/h (3 Bft) 95,65 %
24.09.2020 22:36 17,0 C 12,8 C 13,9 C 76 % 998,4 hPa 0,0 l/m 0 min 0 min 0 W/m 16,1 km/h (3 Bft) 97,87 %
24.09.2020 22:38 16,9 C 13,3 C 13,9 C 77 % 998,4 hPa 0,0 l/m 0 min 0 min 0 W/m 16,1 km/h (3 Bft) 97,87 %
24.09.2020 22:40 16,9 C 13,3 C 13,9 C 77 % 998,4 hPa 0,0 l/m 0 min 0 min 0 W/m 3,2 km/h (1 Bft) 97,67 %
24.09.2020 22:42 16,8 C 13,3 C 13,9 C 78 % 998,4 hPa 0,0 l/m 0 min 0 min 0 W/m 3,2 km/h (1 Bft) 97,87 %
24.09.2020 22:44 16,7 C 13,9 C 13,9 C 78 % 998,3 hPa 0,0 l/m 0 min 0 min 0 W/m 6,4 km/h (2 Bft) 98,28 %
24.09.2020 22:46 16,7 C 13,9 C 13,9 C 78 % 998,3 hPa 0,0 l/m 0 min 0 min 0 W/m 9,7 km/h (2 Bft) 97,87 %
24.09.2020 22:48 16,6 C 13,9 C 13,9 C 79 % 998,1 hPa 0,0 l/m 0 min 0 min 0 W/m 6,4 km/h (2 Bft) 100,00 %
24.09.2020 22:50 16,6 C 14,4 C 13,9 C 79 % 998,1 hPa 0,0 l/m 0 min 0 min 0 W/m 0,0 km/h (0 Bft) 98,31 %
24.09.2020 22:52 16,6 C 14,4 C 13,9 C 79 % 998,0 hPa 0,0 l/m 0 min 0 min 0 W/m 0,0 km/h (0 Bft) 100,00 %
24.09.2020 22:54 16,5 C 14,4 C 13,9 C 79 % 998,0 hPa 0,0 l/m 0 min 0 min 0 W/m 0,0 km/h (0 Bft) 97,87 %
24.09.2020 22:56 16,4 C 14,4 C 13,9 C 80 % 998,0 hPa 0,0 l/m 0 min 0 min 0 W/m 0,0 km/h (0 Bft) 100,00 %
24.09.2020 22:58 16,4 C 14,4 C 13,9 C 80 % 997,9 hPa 0,0 l/m 0 min 0 min 0 W/m 0,0 km/h (0 Bft) 100,00 %
24.09.2020 23:00 16,4 C 14,4 C 13,9 C 80 % 997,9 hPa 0,0 l/m 0 min 0 min 0 W/m 3,2 km/h (1 Bft) 97,87 %
24.09.2020 23:02 16,3 C 14,4 C 13,9 C 80 % 997,9 hPa 0,0 l/m 0 min 0 min 0 W/m 9,7 km/h (2 Bft) 100,00 %
24.09.2020 23:04 16,3 C 14,4 C 13,9 C 80 % 997,8 hPa 0,0 l/m 0 min 0 min 0 W/m 0,0 km/h (0 Bft) 100,00 %
24.09.2020 23:06 16,3 C 14,4 C 13,9 C 80 % 997,8 hPa 0,0 l/m 0 min 0 min 0 W/m 0,0 km/h (0 Bft) 97,87 %
24.09.2020 23:08 16,2 C 14,4 C 13,9 C 80 % 997,8 hPa 0,0 l/m 0 min 0 min 0 W/m 0,0 km/h (0 Bft) 100,00 %
24.09.2020 23:10 16,2 C 14,4 C 13,9 C 81 % 997,8 hPa 0,0 l/m 0 min 0 min 0 W/m 3,2 km/h (1 Bft) 97,87 %
24.09.2020 23:12 16,2 C 14,4 C 13,9 C 81 % 997,8 hPa 0,0 l/m 0 min 0 min 0 W/m 0,0 km/h (0 Bft) 97,87 %
24.09.2020 23:14 16,2 C 14,4 C 13,9 C 81 % 997,7 hPa 0,0 l/m 0 min 0 min 0 W/m 3,2 km/h (1 Bft) 72,34 %
24.09.2020 23:16 16,1 C 14,4 C 13,9 C 81 % 997,7 hPa 0,0 l/m 0 min 0 min 0 W/m 12,9 km/h (3 Bft) 84,78 %
24.09.2020 23:18 16,1 C 14,4 C 13,9 C 81 % 997,6 hPa 0,0 l/m 0 min 0 min 0 W/m 0,0 km/h (0 Bft) 97,83 %
24.09.2020 23:20 16,1 C 14,4 C 13,9 C 81 % 997,6 hPa 0,0 l/m 0 min 0 min 0 W/m 6,4 km/h (2 Bft) 100,00 %
24.09.2020 23:22 16,0 C 14,4 C 13,9 C 82 % 997,4 hPa 0,0 l/m 0 min 0 min 0 W/m 3,2 km/h (1 Bft) 97,87 %
24.09.2020 23:24 16,0 C 14,4 C 13,9 C 82 % 997,4 hPa 0,0 l/m 0 min 0 min 0 W/m 0,0 km/h (0 Bft) 100,00 %
24.09.2020 23:26 16,0 C 14,4 C 13,9 C 82 % 997,4 hPa 0,0 l/m 0 min 0 min 0 W/m 0,0 km/h (0 Bft) 100,00 %
24.09.2020 23:28 15,9 C 14,4 C 13,9 C 82 % 997,3 hPa 0,0 l/m 0 min 0 min 0 W/m 16,1 km/h (3 Bft) 100,00 %
24.09.2020 23:30 15,9 C 14,4 C 13,9 C 82 % 997,2 hPa 0,0 l/m 0 min 0 min 0 W/m 12,9 km/h (3 Bft) 97,87 %
24.09.2020 23:32 15,9 C 14,4 C 13,9 C 83 % 997,2 hPa 0,0 l/m 0 min 0 min 0 W/m 0,0 km/h (0 Bft) 97,83 %
24.09.2020 23:34 15,8 C 14,4 C 13,9 C 83 % 997,1 hPa 0,0 l/m 0 min 0 min 0 W/m 0,0 km/h (0 Bft) 97,87 %
24.09.2020 23:36 15,8 C 14,4 C 13,9 C 83 % 997,0 hPa 0,0 l/m 0 min 0 min 0 W/m 0,0 km/h (0 Bft) 97,87 %
24.09.2020 23:38 15,8 C 14,4 C 13,9 C 83 % 997,0 hPa 0,0 l/m 0 min 0 min 0 W/m 12,9 km/h (3 Bft) 97,87 %
24.09.2020 23:40 15,8 C 14,4 C 13,9 C 83 % 997,0 hPa 0,0 l/m 0 min 0 min 0 W/m 12,9 km/h (3 Bft) 95,74 %
24.09.2020 23:42 15,7 C 14,4 C 13,9 C 83 % 997,0 hPa 0,0 l/m 0 min 0 min 0 W/m 12,9 km/h (3 Bft) 95,74 %
24.09.2020 23:44 15,7 C 14,4 C 13,9 C 83 % 997,0 hPa 0,0 l/m 0 min 0 min 0 W/m 6,4 km/h (2 Bft) 93,48 %
24.09.2020 23:46 15,7 C 13,9 C 13,9 C 84 % 997,0 hPa 0,0 l/m 0 min 0 min 0 W/m 12,9 km/h (3 Bft) 93,62 %
24.09.2020 23:48 15,6 C 13,9 C 13,9 C 84 % 997,0 hPa 0,0 l/m 0 min 0 min 0 W/m 6,4 km/h (2 Bft) 93,62 %
24.09.2020 23:50 15,6 C 13,9 C 13,9 C 84 % 996,8 hPa 0,0 l/m 0 min 0 min 0 W/m 12,9 km/h (3 Bft) 93,62 %
24.09.2020 23:52 15,6 C 13,9 C 13,9 C 85 % 996,8 hPa 0,0 l/m 0 min 0 min 0 W/m 12,9 km/h (3 Bft) 93,62 %
24.09.2020 23:54 15,6 C 13,9 C 13,9 C 85 % 996,9 hPa 0,0 l/m 0 min 0 min 0 W/m 12,9 km/h (3 Bft) 95,74 %
24.09.2020 23:56 15,5 C 13,9 C 13,9 C 85 % 996,9 hPa 0,0 l/m 0 min 0 min 0 W/m 3,2 km/h (1 Bft) 93,48 %
24.09.2020 23:58 15,5 C 13,9 C 13,9 C 85 % 996,9 hPa 0,0 l/m 0 min 0 min 0 W/m 3,2 km/h (1 Bft) 95,74 %
_ Min-Zeit 07:34 05:34 06:40 14:18 23:50 - - - - 01:36 05:18
Minimum _ 12,0 C 11,1 C 10,6 C 51 % 996,8 hPa - - - - 0,0 km/h (0 Bft) 51,11 %
_ Max-Zeit 15:10 15:10 13:50 03:20 10:12 03:38 12:08 00:38 14:04 15:12 00:14
Maximum _ 20,3 C 24,4 C 21,1 C 96 % 1005,3 hPa 0,4 l/m 4 min 2 min 737 W/m 48,3 km/h
S-SO (6 Bft)
100,00 %
Durchschnitt _ 16,5 C 16,4 C 14,9 C 74 % 1001,9 hPa #3,0 l/m #7:28 h #2:00 h 327 W/m 15,9 km/h (3 Bft) 97,45 %
© 2020 W. Hausmann